GFSGBSN_sfc_dewp_000.txt.gz
Dewpoint
57 56 56 57 57 57 56 56 55 56 54 54 54 53 54 54 54 54 53 53 53 52 52 51 52 52 52 49 39 34 58 61 55 43 38 33 31 25 18 16 9 7 7 5 8 14 10
56 56 56 57 57 56 56 55 55 54 54 54 53 53 53 54 56 55 53 53 52 52 51 50 51 52 49 38 35 29 40 47 37 36 35 35 30 24 20 16 9 11 7 5 6 15 15
56 56 57 57 57 56 55 55 54 54 54 53 54 54 54 54 56 55 53 52 52 51 50 51 51 51 50 43 38 33 27 29 33 35 32 26 31 24 24 16 15 11 7 9 10 16 15
56 56 56 56 56 56 54 54 54 54 53 53 54 54 55 56 54 52 52 52 52 50 50 50 51 51 41 39 35 20 23 22 25 25 27 29 28 27 18 17 15 12 15 11 16 19 20
56 56 56 56 55 55 54 54 54 54 53 53 55 56 55 55 54 52 52 51 51 50 51 51 49 51 31 41 24 22 25 23 26 26 27 19 25 20 18 13 13 16 10 17 17 19 19
56 56 56 55 55 55 54 54 54 54 54 55 55 55 55 55 54 53 51 51 53 52 51 51 49 43 41 35 25 23 23 26 30 28 26 22 26 21 21 16 10 12 15 17 15 17 21
56 56 55 54 55 55 54 54 54 54 55 55 55 55 55 55 54 54 52 50 42 40 48 29 33 37 30 26 23 22 24 24 29 26 25 27 23 19 19 20 19 19 18 18 18 18 16
56 55 54 54 56 55 54 54 55 54 55 55 54 54 54 54 54 54 50 50 46 42 34 40 41 36 28 23 25 23 29 28 30 24 27 24 22 22 23 26 26 24 22 22 21 21 17
55 54 54 54 55 55 54 54 54 54 54 54 54 54 54 54 54 51 48 47 50 51 35 29 29 27 29 30 27 26 29 31 26 25 26 24 22 25 27 27 26 29 24 24 23 22 20
54 53 52 54 55 54 54 54 54 54 54 54 53 53 53 53 49 51 48 47 50 46 24 21 26 25 27 30 28 26 27 29 28 26 25 23 27 28 28 26 28 28 30 27 24 22 13
53 53 51 53 54 53 53 53 53 53 53 53 53 53 53 53 48 52 48 55 54 47 18 23 28 30 27 29 28 27 30 32 29 22 28 27 29 29 27 28 29 29 31 29 28 24 23
53 52 52 53 53 52 52 52 52 53 53 53 53 54 53 51 52 52 58 56 42 36 20 25 27 26 25 29 29 26 29 33 33 28 27 27 30 28 29 30 30 30 32 31 30 29 24
52 51 52 52 52 52 52 52 52 52 53 53 53 54 52 55 53 57 57 42 34 26 32 22 25 29 27 28 30 29 30 29 29 26 27 28 29 29 30 29 30 28 30 29 25 24 23
52 51 52 52 52 52 52 52 52 52 52 53 54 53 52 55 61 58 49 39 28 31 26 26 26 29 26 29 30 31 30 28 28 32 29 27 27 27 28 29 27 28 28 26 22 22 24
51 52 52 52 52 52 51 51 51 52 52 53 54 54 58 57 60 53 45 34 35 32 25 25 27 28 29 29 29 29 28 27 29 30 28 29 27 30 28 28 31 30 23 26 27 27 24
52 52 51 51 51 51 49 51 51 52 52 53 52 51 49 57 56 49 43 38 38 33 32 27 25 29 26 26 28 30 31 33 33 30 32 30 25 27 26 32 31 22 27 27 27 19 18
52 52 50 51 51 51 50 50 51 51 52 53 53 39 45 58 47 41 37 39 36 33 36 30 31 26 28 27 29 31 33 34 36 34 30 34 28 26 32 28 28 28 28 29 28 26 21
51 51 50 50 51 50 50 50 50 51 51 51 50 39 54 42 27 41 38 41 36 32 35 35 36 36 30 33 36 36 36 36 40 39 29 33 30 25 27 28 29 28 29 29 24 26 26
51 50 50 51 49 49 50 50 50 50 50 51 46 48 54 41 26 31 41 37 34 33 33 35 35 37 37 34 34 38 37 41 37 36 35 32 28 25 27 31 30 27 28 34 31 26 22
50 50 50 50 48 48 50 50 50 50 50 52 48 39 43 47 43 40 39 36 36 38 36 36 34 36 35 35 39 37 38 40 37 34 41 39 34 26 26 26 26 22 24 32 30 24 25
50 50 50 48 48 48 50 50 50 50 49 49 49 39 37 33 36 42 40 37 36 34 36 35 33 36 34 33 36 37 38 38 37 38 38 36 29 30 28 30 28 26 25 26 24 27 25
50 50 50 48 48 49 50 49 50 50 50 48 47 43 43 33 36 39 41 37 35 36 35 35 34 38 37 34 35 36 36 36 35 36 39 39 29 29 27 33 33 27 27 28 27 25 25
50 50 50 50 50 50 50 50 50 50 50 49 50 49 43 41 35 37 37 37 38 38 37 38 39 39 37 40 40 39 40 41 39 37 36 34 29 26 24 32 30 22 26 29 28 32 27
50 50 50 50 50 50 50 49 49 50 52 56 54 50 42 35 39 38 41 39 37 39 39 41 40 38 41 43 37 33 33 39 41 39 36 33 32 26 20 21 11 29 31 31 36 36 36
49 50 50 51 50 50 49 49 49 49 50 54 53 52 43 34 41 39 40 42 42 43 42 43 43 41 42 37 30 27 28 29 32 39 42 36 27 26 18 21 19 25 30 29 27 35 38
49 50 50 50 49 49 49 49 49 49 50 53 53 54 45 41 40 44 41 41 38 38 39 42 45 47 42 32 29 26 21 24 28 36 37 37 29 25 27 12 8 23 33 34 32 27 39
50 50 50 50 49 49 49 49 49 49 50 54 52 54 51 43 45 44 41 41 43 40 38 41 41 41 40 28 28 30 28 32 29 27 26 27 24 23 23 15 23 28 33 34 26 25 40
49 49 49 50 49 48 48 49 49 49 49 53 52 54 50 45 47 50 48 43 44 42 38 41 39 38 35 27 25 31 30 30 29 32 30 27 25 23 23 18 20 33 34 28 32 39 40
49 49 49 50 50 49 48 49 49 49 49 52 51 55 55 49 48 50 50 50 47 43 45 42 36 41 39 34 35 37 31 33 26 26 35 26 29 28 30 29 32 34 35 38 42 41 41

GFSGBSN_sfc_dewp_003.txt.gz
Dewpoint
57 58 57 57 57 57 57 55 55 55 54 54 54 54 54 54 54 55 54 54 54 52 52 51 51 51 51 47 38 35 61 61 46 37 30 29 29 27 19 17 18 4 5 8 12 9 6
56 57 57 57 57 57 57 56 55 55 55 54 53 53 53 53 53 55 55 53 52 52 51 50 50 51 48 32 33 32 46 42 40 36 34 31 27 28 24 15 5 9 9 6 13 13 9
58 57 57 56 57 57 57 55 55 54 54 54 53 53 54 53 54 55 54 53 52 51 50 50 50 50 49 33 36 36 37 37 36 33 29 33 33 27 19 17 13 10 7 9 9 15 13
57 57 57 57 57 56 56 54 55 54 54 54 53 53 53 53 54 53 52 52 51 51 50 50 50 50 37 37 39 32 22 21 26 33 31 22 27 24 19 16 16 13 13 10 12 18 18
57 57 57 57 56 56 55 55 54 54 54 54 53 53 55 55 54 52 52 51 50 50 50 50 48 49 30 38 23 22 23 22 25 26 26 19 25 20 19 13 11 14 9 14 15 18 19
57 57 57 57 56 55 55 55 54 54 54 53 54 55 55 55 54 51 51 50 50 50 50 50 49 40 36 26 24 23 23 24 28 29 25 25 25 19 20 10 3 9 12 21 13 16 19
57 57 57 56 56 55 55 55 54 54 54 55 55 55 55 55 54 52 50 49 41 40 48 24 29 36 35 36 22 20 23 25 27 26 23 26 21 17 18 20 18 17 16 14 17 18 27
56 56 57 56 55 55 56 55 54 55 55 55 55 55 55 55 54 54 50 49 43 43 39 39 41 38 36 27 24 23 30 25 25 23 25 22 21 22 26 28 25 22 20 21 21 27 29
55 56 56 55 55 56 56 55 55 54 54 54 54 54 55 54 54 51 46 43 50 47 36 26 34 30 27 27 24 25 29 30 26 24 24 21 23 24 26 27 27 28 24 22 21 28 29
55 55 55 54 54 56 55 55 54 54 54 54 54 54 53 53 49 49 46 47 50 41 24 22 24 22 28 30 26 26 28 27 28 25 24 24 30 27 27 25 27 26 29 26 24 26 25
54 54 53 53 54 54 54 53 53 53 54 54 53 54 53 53 48 52 49 56 52 42 16 21 25 28 25 28 26 23 31 32 25 25 27 27 29 28 26 27 29 29 30 26 25 22 22
54 53 53 52 53 53 53 52 52 53 53 53 53 54 53 52 50 50 56 49 40 33 17 25 26 26 23 27 28 27 31 34 32 28 28 28 30 28 28 30 29 28 31 31 31 28 23
53 53 52 52 53 53 52 52 52 52 52 53 53 54 52 53 53 57 53 40 30 27 29 22 25 27 27 27 28 29 29 28 28 25 27 27 27 27 30 29 30 29 29 27 24 22 23
52 52 52 52 53 52 52 52 51 52 52 53 53 53 52 51 59 55 45 34 28 30 27 25 27 28 26 29 30 31 29 26 28 30 28 25 24 25 26 27 26 27 27 26 20 21 22
52 52 51 52 52 52 52 51 51 51 52 53 53 51 55 57 59 50 43 32 33 32 26 25 28 27 28 29 28 29 29 27 29 30 28 26 25 27 27 27 30 28 23 27 27 26 24
52 51 52 52 52 52 51 51 51 51 52 53 53 49 47 56 50 47 41 37 39 36 31 27 26 29 26 27 28 30 31 33 33 31 31 28 21 26 25 30 29 25 28 25 26 17 17
51 51 52 51 51 50 48 50 51 52 52 53 48 35 39 53 40 36 33 38 40 32 36 28 27 27 28 27 30 32 33 34 37 35 31 33 25 24 29 27 26 27 26 27 28 25 19
51 51 51 51 51 50 50 50 51 51 52 51 45 30 50 39 29 38 35 40 40 31 34 36 36 33 30 34 36 35 34 36 39 38 28 33 28 25 25 28 30 27 28 25 21 24 25
51 50 50 51 49 50 50 50 50 51 52 51 43 49 54 38 27 29 36 41 36 32 33 34 34 37 37 36 34 37 37 39 35 35 33 31 27 24 27 29 28 26 29 31 28 26 25
50 50 50 50 48 49 50 50 50 50 51 51 44 40 43 45 37 29 33 35 35 36 36 35 34 37 35 37 39 36 37 39 35 34 41 37 32 24 24 26 26 20 25 30 27 22 23
50 50 50 48 48 48 49 50 50 50 49 50 46 37 39 35 38 43 39 37 34 33 35 34 33 35 34 33 36 37 38 36 35 39 39 33 26 30 29 30 27 25 23 28 27 27 24
50 50 48 48 48 49 50 50 50 50 49 47 46 40 40 31 35 39 39 38 34 35 34 34 33 38 36 33 34 35 35 33 32 38 39 34 29 27 28 32 31 25 24 25 25 25 28
50 50 48 48 50 50 49 49 50 50 49 45 48 48 40 38 36 37 37 37 36 37 39 38 38 37 35 39 39 40 40 39 38 37 34 31 29 22 17 29 27 16 24 27 26 31 29
50 50 50 50 50 50 49 49 49 50 51 50 52 48 41 34 33 34 40 39 38 36 38 41 39 37 39 39 36 34 35 40 41 41 36 33 28 23 19 19 7 20 29 30 30 35 35
49 50 50 50 50 50 49 49 49 49 50 53 53 48 41 33 39 40 41 42 42 43 42 43 43 41 41 33 31 30 28 29 32 39 38 34 27 26 17 18 17 19 31 34 30 30 36
50 50 50 50 49 49 49 49 49 49 51 52 53 50 44 43 40 41 41 40 37 37 38 41 46 45 39 30 28 21 21 25 28 34 37 33 27 23 24 9 5 17 32 33 31 26 38
49 49 49 50 49 49 48 49 49 49 51 52 52 53 47 42 45 43 40 40 41 39 37 40 40 39 37 27 22 28 27 29 28 27 25 27 22 18 17 12 21 25 32 33 25 24 39
49 48 48 48 50 48 48 49 49 49 49 51 52 53 48 45 46 48 45 43 43 41 37 41 38 37 32 26 24 26 26 29 28 30 30 29 26 24 25 18 18 31 32 29 32 36 39
48 48 49 48 48 49 48 49 49 49 50 52 50 54 53 48 46 49 48 48 46 42 43 41 38 38 37 33 32 33 30 33 26 26 33 26 27 27 28 27 31 32 34 36 38 39 39

GFSGBSN_sfc_dewp_009.txt.gz
Dewpoint
60 60 59 59 57 57 57 57 57 55 54 55 55 54 54 54 54 54 53 53 54 52 52 52 51 50 49 46 42 47 61 60 51 32 29 29 28 28 26 26 20 17 13 11 10 11 28
60 60 59 58 57 56 57 57 57 56 54 54 55 53 54 53 53 54 52 53 53 52 52 51 49 50 47 36 34 52 54 49 41 32 30 28 26 27 25 20 21 19 9 10 11 9 9
60 59 58 57 56 56 57 57 56 57 55 54 54 53 54 52 54 52 53 52 53 52 50 49 49 48 48 39 35 48 45 42 38 33 31 31 30 27 28 20 15 11 9 11 14 13 14
60 59 58 57 56 56 56 56 56 56 55 54 54 53 52 53 53 52 52 53 53 51 50 50 50 48 44 43 43 39 38 34 38 35 32 34 32 29 24 19 18 11 15 11 11 16 18
60 59 58 57 56 56 56 56 56 56 55 54 53 52 52 52 52 52 52 52 51 49 49 51 48 48 40 41 33 29 28 26 33 36 35 31 33 30 18 17 16 18 9 12 14 27 19
60 59 58 57 57 56 56 56 56 55 54 54 53 52 53 53 53 53 51 51 49 50 49 49 49 44 36 25 33 23 26 27 29 32 31 29 25 22 18 13 11 13 12 13 14 23 31
59 59 58 57 57 57 56 56 56 55 54 54 53 53 54 54 54 52 50 48 44 43 47 37 36 33 30 33 28 22 27 32 31 30 27 27 22 19 19 17 12 14 13 14 20 31 35
56 58 58 57 57 57 57 56 55 54 54 53 53 54 55 54 54 51 50 47 40 43 42 44 42 40 38 36 27 23 33 30 31 26 25 25 23 22 27 26 22 22 21 25 30 33 34
54 57 57 57 57 56 56 56 55 54 54 54 54 54 55 54 52 50 48 48 48 48 42 33 40 36 32 34 27 23 31 32 26 25 24 25 23 28 27 27 27 25 24 25 27 33 33
53 55 56 56 56 56 56 56 55 54 54 54 53 54 54 53 49 50 48 48 49 49 29 26 25 25 29 29 30 27 31 30 29 25 28 29 29 27 26 27 27 26 27 31 32 29 26
53 53 56 56 56 55 55 54 54 55 55 54 53 54 53 51 49 49 50 57 49 43 24 25 24 27 28 26 25 28 34 30 27 27 28 28 29 27 27 27 30 28 32 30 26 24 25
52 51 55 55 55 54 54 53 53 54 54 53 53 54 53 51 50 51 53 50 43 34 24 24 26 26 28 29 30 30 32 34 32 31 30 29 29 28 28 30 30 33 31 31 30 28 25
51 51 52 55 54 54 53 53 53 53 53 53 53 54 52 52 50 57 53 40 33 29 30 23 25 27 27 30 30 30 30 31 28 29 29 27 27 27 31 29 30 31 30 27 26 27 24
51 51 51 54 54 53 52 52 52 52 52 52 53 53 52 52 53 52 43 33 25 28 29 26 27 27 27 30 31 29 28 28 30 29 28 23 24 24 28 28 27 28 29 30 23 25 24
50 51 51 54 53 52 52 52 52 52 52 52 52 51 51 53 54 51 38 31 27 30 28 26 27 26 30 30 29 30 29 28 29 30 29 28 24 25 28 29 29 26 25 29 28 26 25
49 51 51 53 52 52 51 52 52 52 52 52 51 50 50 56 55 45 37 30 34 38 34 29 25 29 28 30 29 29 30 33 31 34 32 31 24 27 27 30 30 28 29 25 27 22 18
49 50 51 53 52 51 51 52 52 52 52 52 49 45 45 53 45 39 34 31 40 41 36 29 29 30 30 29 31 30 30 34 36 33 32 28 30 28 28 27 27 28 27 28 27 26 18
48 50 51 52 51 51 51 52 51 52 52 52 43 35 48 44 34 36 33 37 41 38 36 37 33 32 31 34 34 33 33 34 39 38 32 31 32 29 24 28 31 28 27 26 25 20 25
49 50 50 52 51 50 51 51 49 51 52 49 39 48 54 43 31 34 34 38 40 35 35 36 37 38 40 37 34 36 36 38 36 35 34 33 31 28 25 24 27 27 29 27 27 30 26
48 49 50 51 51 51 51 49 50 51 52 49 47 43 47 40 36 31 31 34 34 38 37 36 37 39 38 38 38 37 37 38 38 38 42 37 29 28 25 23 26 26 29 26 26 27 24
48 49 51 50 50 50 49 50 50 51 52 49 43 41 45 38 35 32 31 32 34 35 36 36 36 36 36 35 36 36 37 35 37 40 39 33 29 28 29 29 28 23 27 27 23 25 27
49 51 50 50 50 49 50 50 51 51 51 48 41 40 37 38 39 33 34 36 35 35 37 35 35 38 38 35 34 36 36 33 31 38 35 33 30 29 30 30 28 26 24 26 28 27 25
49 50 49 49 49 49 49 50 50 51 51 47 49 44 39 35 40 35 36 35 35 38 40 39 38 37 36 39 39 38 38 38 38 37 33 31 31 26 22 26 23 24 26 25 27 27 29
50 49 49 49 48 48 49 50 50 51 50 49 49 45 39 33 36 34 39 39 37 37 38 40 39 38 41 42 40 38 38 39 38 35 34 31 27 25 27 24 21 22 28 26 26 27 28
49 49 49 48 48 50 50 50 50 50 50 52 51 46 39 33 35 35 40 41 42 43 42 42 43 42 42 37 36 32 33 33 34 34 31 31 29 25 28 22 19 18 24 31 31 25 32
48 48 49 50 49 49 49 49 50 50 50 52 52 49 44 37 35 36 41 41 38 39 40 43 43 41 37 34 33 30 29 29 27 34 35 31 30 30 24 24 20 23 22 35 31 27 32
49 49 49 49 49 49 49 49 49 49 50 52 53 51 47 42 44 42 40 40 41 40 40 40 40 41 37 32 32 31 29 28 25 27 30 32 30 28 20 28 25 24 30 32 27 28 35
49 49 49 49 49 49 49 49 49 49 50 52 52 53 48 46 47 48 44 42 42 42 40 42 40 40 35 34 34 31 33 32 29 30 32 30 29 28 23 24 23 27 32 33 36 36 36
48 48 48 48 48 47 48 49 49 49 50 52 52 54 53 47 47 49 49 49 48 43 43 42 41 40 39 35 32 33 33 33 29 31 33 29 32 31 28 30 32 31 37 36 36 35 37

GFSGBSN_sfc_dewp_012.txt.gz
Dewpoint
61 61 60 60 59 58 58 57 58 57 56 55 55 56 55 54 54 54 54 54 54 54 53 52 50 50 49 43 33 47 60 58 44 31 27 25 23 21 15 20 21 20 18 13 14 26 33
60 60 60 60 59 58 58 57 57 57 56 55 54 55 55 54 54 54 54 54 53 53 52 51 50 50 47 34 33 46 48 44 35 28 28 27 22 22 19 22 20 19 13 11 12 23 23
57 60 60 59 58 58 57 56 57 57 56 56 53 54 55 54 54 54 54 53 53 52 51 50 49 48 46 35 33 46 42 37 33 29 31 29 26 22 24 24 17 14 11 11 12 22 20
57 58 60 59 58 57 56 56 56 56 56 56 54 54 54 54 53 53 53 53 53 51 50 50 49 49 40 39 38 39 37 36 37 31 30 32 32 27 27 19 13 10 12 12 15 17 16
56 57 60 59 57 56 56 56 56 56 56 56 54 54 54 53 52 53 53 52 51 50 49 50 50 48 32 42 33 27 34 24 35 35 34 29 31 27 24 19 11 13 5 10 12 23 16
54 56 58 59 58 56 56 56 56 56 56 55 53 54 53 53 53 53 51 51 49 50 50 49 48 46 38 25 31 24 24 28 28 34 31 29 27 23 19 12 8 8 5 6 8 24 15
54 56 57 59 58 57 57 57 56 55 55 54 53 54 53 53 53 52 50 48 46 46 48 35 31 35 25 29 30 20 22 27 28 27 25 27 20 16 16 13 11 11 11 10 18 31 28
53 54 56 59 58 57 57 57 56 55 55 54 53 53 54 54 54 51 49 45 40 47 37 41 39 37 34 33 27 20 29 25 26 19 25 24 19 22 24 19 16 14 12 19 26 31 30
52 53 54 56 58 57 57 57 56 55 54 53 54 54 54 54 52 50 48 45 48 48 42 35 38 30 30 33 22 18 24 27 22 21 21 19 24 27 24 22 20 21 18 25 20 29 30
51 53 54 54 58 57 56 56 56 55 54 53 54 54 54 52 49 49 46 44 45 49 29 24 25 28 28 28 23 26 29 26 27 23 26 26 27 25 24 24 25 23 25 25 28 24 18
50 52 53 53 56 56 55 55 55 55 54 54 54 53 53 51 51 45 50 55 54 49 23 23 22 25 27 24 24 28 33 28 23 26 29 27 26 25 24 26 28 26 29 29 27 24 25
49 51 52 52 54 55 55 54 54 54 54 54 53 54 53 50 53 52 54 55 51 38 19 21 22 23 26 26 26 29 30 31 31 28 28 28 29 28 28 30 29 31 30 28 28 26 23
49 50 51 51 53 55 55 54 53 53 53 53 53 54 52 51 47 56 60 50 34 28 26 20 20 22 24 24 27 29 29 28 25 26 27 26 27 28 30 29 31 30 27 23 20 24 23
48 49 50 52 53 54 54 54 53 53 53 53 53 53 53 52 53 57 51 36 25 21 23 23 22 23 24 26 28 29 29 27 29 27 24 18 24 24 28 28 25 29 26 23 17 22 15
48 49 49 50 51 54 54 53 52 52 52 52 53 53 51 53 55 55 42 40 27 26 26 23 23 22 25 27 24 28 29 27 28 30 21 23 21 26 29 29 28 27 27 29 28 29 27
47 48 49 50 51 53 53 52 52 52 52 52 50 49 49 56 58 51 43 32 26 35 31 26 19 22 23 26 23 24 28 31 30 32 33 29 24 27 28 29 30 27 28 26 29 24 18
47 47 47 49 51 52 53 52 52 52 52 52 50 44 54 60 55 45 39 31 33 40 37 28 22 24 23 27 26 24 25 32 33 31 31 28 28 28 30 27 25 27 25 25 25 28 15
47 46 46 48 51 51 53 51 51 52 51 52 49 40 55 52 41 37 34 31 40 37 36 33 31 28 28 30 29 29 27 31 37 34 30 31 31 32 26 29 30 28 25 22 21 20 28
47 47 47 48 50 51 52 51 51 51 51 50 42 47 53 47 38 44 35 33 38 34 32 35 32 33 36 34 33 34 34 36 35 35 33 33 32 29 26 28 28 27 27 23 28 32 26
46 47 47 49 49 50 52 51 51 51 51 51 43 45 49 41 38 34 32 31 29 37 35 35 37 38 38 36 37 37 36 35 37 37 40 36 32 30 27 22 26 28 27 25 22 26 20
46 47 47 48 49 51 51 50 50 51 51 51 46 42 42 44 37 33 33 30 28 33 35 36 36 35 36 37 36 36 37 34 38 40 38 35 31 29 27 27 26 24 25 25 22 23 24
46 47 48 48 48 51 50 50 50 50 51 50 44 42 43 39 36 32 33 29 26 33 35 33 35 37 37 37 34 36 36 34 33 38 37 35 34 31 30 29 27 26 24 25 25 24 24
46 47 47 49 48 51 50 49 49 50 51 47 49 45 41 40 36 33 32 30 28 38 40 37 37 39 38 38 40 40 39 38 36 37 37 36 36 29 24 28 28 33 28 24 24 25 26
46 47 48 49 49 50 50 49 49 50 51 49 51 45 43 41 39 33 29 29 37 38 39 40 40 40 42 42 41 40 39 38 36 35 34 35 32 32 33 29 30 18 25 24 24 23 24
46 48 50 51 49 49 49 49 49 51 51 53 53 47 43 41 39 34 33 30 38 42 43 42 43 42 43 40 41 36 40 41 39 34 32 32 33 33 37 25 21 11 18 23 26 18 24
48 49 49 49 48 48 48 49 50 51 51 55 56 53 47 45 41 34 34 40 43 42 44 43 44 44 39 43 42 37 33 30 31 34 36 31 33 35 31 35 33 22 22 34 31 22 29
49 49 49 48 48 48 49 49 49 50 51 55 55 55 48 41 43 42 38 40 43 44 44 42 42 43 39 42 44 41 35 30 27 31 35 36 37 36 32 36 28 24 27 33 24 25 33
48 48 49 49 49 49 49 49 49 50 50 54 56 57 53 48 45 47 44 44 44 45 45 44 42 43 43 44 45 39 41 35 31 30 32 32 35 36 32 35 30 26 33 32 35 38 35
49 49 48 48 48 48 49 49 49 49 50 53 54 56 56 50 49 51 50 49 48 45 45 45 44 42 44 44 43 43 38 36 37 34 33 31 34 35 31 31 31 31 36 36 37 38 37

GFSGBSN_sfc_dewp_015.txt.gz
Dewpoint
57 58 61 60 60 59 59 59 58 57 57 57 56 55 55 55 55 55 55 54 54 55 54 52 51 51 49 44 36 50 59 58 42 38 26 19 20 20 16 14 15 20 22 21 26 31 29
55 57 58 60 60 60 59 59 58 57 57 57 56 55 55 55 55 55 54 54 54 54 52 51 51 50 48 38 31 42 39 38 34 33 24 21 19 17 14 16 18 19 20 16 22 26 28
54 56 57 59 59 59 59 58 57 57 57 57 56 55 55 55 55 54 54 54 54 53 51 50 49 47 45 37 32 40 35 30 30 26 22 25 24 22 23 22 21 16 14 17 23 25 26
53 54 56 57 59 59 58 57 57 57 57 57 56 55 54 54 54 53 53 53 52 51 50 49 49 48 42 36 34 35 38 34 32 29 29 31 30 26 27 22 18 14 15 17 20 24 24
53 53 53 56 57 58 58 57 56 57 57 56 56 55 54 53 53 53 53 51 51 50 49 49 50 48 37 41 30 27 32 28 33 32 31 28 31 28 26 22 15 14 10 14 17 19 22
51 53 54 54 56 58 58 57 56 56 56 56 56 54 54 53 53 53 52 50 50 50 49 47 46 46 41 25 28 22 29 29 32 33 32 30 28 26 24 19 11 12 9 10 13 16 14
50 52 53 54 56 58 59 58 56 56 55 55 55 54 54 53 54 53 50 48 45 46 46 37 33 31 25 27 29 22 23 26 30 30 26 28 23 19 18 18 14 12 8 6 9 14 11
50 51 52 53 56 58 59 58 56 55 55 55 55 54 53 54 54 52 51 42 41 48 41 37 33 31 31 29 25 19 23 23 26 22 26 25 24 20 16 14 11 10 9 13 16 18 23
50 51 52 52 54 56 59 58 56 55 55 55 54 54 54 54 53 51 48 43 46 48 43 33 31 30 26 30 22 19 21 22 21 21 25 25 20 21 19 13 12 14 10 18 16 21 23
50 49 50 52 53 54 57 57 56 55 55 54 53 54 53 52 49 48 45 44 45 47 36 26 27 27 27 26 22 22 22 23 20 20 21 30 25 19 16 15 16 19 21 19 17 22 17
48 49 50 51 52 53 54 56 56 55 55 54 53 54 53 51 53 44 50 51 49 53 28 23 23 26 24 22 18 24 26 23 20 21 23 25 23 21 18 22 25 28 25 23 21 20 22
48 49 49 50 51 52 53 55 55 55 54 53 54 53 53 51 51 51 53 58 55 42 24 21 22 21 24 23 20 20 22 24 25 22 23 31 27 24 24 27 26 28 26 26 24 21 23
48 48 49 50 50 52 52 55 55 54 54 54 54 53 53 51 46 54 58 55 40 31 23 16 18 20 21 19 21 22 22 22 17 21 23 22 22 27 27 25 28 25 25 20 17 21 21
46 48 48 49 50 51 51 54 54 53 53 53 53 53 53 51 51 58 58 46 31 23 21 18 15 19 20 19 19 21 18 16 19 23 22 18 24 25 27 25 23 25 22 21 15 18 12
44 46 48 48 49 50 52 54 54 53 53 53 52 53 52 53 55 56 50 41 32 17 20 19 17 18 20 20 19 22 23 18 19 22 21 19 20 26 27 27 24 23 24 25 25 27 24
42 44 48 48 49 50 51 53 53 53 52 52 50 50 49 54 57 55 45 35 28 26 24 20 18 19 20 22 19 20 23 23 26 29 30 22 20 23 27 29 29 28 26 23 23 19 18
43 44 47 47 48 49 51 53 53 53 52 52 50 44 48 55 55 47 39 34 27 30 29 24 19 18 20 21 21 20 20 27 30 29 28 22 23 27 28 26 21 27 23 23 24 28 21
43 43 47 46 47 48 50 52 53 52 52 51 49 41 55 58 42 43 39 33 31 32 37 29 29 22 23 23 24 21 19 21 32 31 24 24 27 31 26 28 28 28 26 25 26 20 25
43 43 46 46 46 48 50 51 52 52 51 48 46 46 58 56 43 47 37 30 29 32 32 31 26 26 25 24 23 23 24 38 38 34 27 32 27 28 25 28 27 23 23 23 21 31 22
42 44 46 45 44 45 49 51 52 51 51 50 43 43 51 50 45 39 35 31 31 35 31 31 26 31 31 31 31 31 32 36 38 35 40 37 28 27 27 24 25 28 22 22 23 26 24
42 46 46 46 46 45 49 50 52 51 51 50 42 40 43 45 43 39 35 32 27 31 34 35 34 30 29 30 32 33 35 36 37 40 35 36 31 28 26 26 23 22 20 22 20 20 24
43 45 46 47 47 48 49 49 51 51 51 50 41 39 42 43 41 37 35 30 27 29 33 34 32 29 29 32 33 30 35 36 35 38 37 37 34 33 33 28 26 24 21 18 19 20 17
45 45 46 47 47 48 48 48 51 50 50 47 48 50 43 43 42 36 36 30 28 33 40 35 32 34 34 38 41 41 40 38 36 38 39 37 39 33 24 29 29 32 30 23 20 19 21
45 46 46 47 48 48 48 48 50 50 50 47 49 45 43 43 40 34 31 30 28 34 37 37 37 37 43 42 41 40 38 36 35 37 38 40 37 35 31 31 28 17 22 19 22 20 19
44 46 47 48 47 48 48 48 50 50 50 51 53 47 44 46 37 32 30 28 31 39 40 41 43 43 43 41 40 38 40 41 36 32 31 33 36 33 37 24 20 16 14 19 21 18 17
45 46 47 48 48 47 47 50 49 50 50 55 57 55 46 45 39 31 30 29 41 42 44 44 44 45 43 46 43 34 32 30 33 35 33 32 37 34 31 34 32 26 24 30 28 19 24
46 46 47 47 48 48 48 49 49 50 50 55 56 59 41 35 34 35 33 32 34 40 42 44 44 44 43 46 44 39 34 31 29 31 37 37 38 37 33 36 31 23 24 30 23 28 31
46 47 47 48 49 48 48 49 49 49 50 53 56 59 43 36 43 43 37 36 36 38 46 45 43 44 46 44 46 41 42 37 33 30 33 33 35 37 36 36 31 24 29 29 37 34 34
46 47 47 48 48 48 48 48 48 49 50 51 57 56 55 46 50 51 51 51 46 42 42 46 40 44 44 44 46 49 42 39 39 34 33 32 33 36 31 32 33 30 29 31 35 36 35

GFSGBSN_sfc_dewp_018.txt.gz
Dewpoint
55 55 56 58 60 60 60 60 59 58 57 57 57 57 56 55 54 54 53 53 55 54 54 53 52 51 49 45 39 48 61 56 38 36 33 23 18 17 17 16 14 14 19 20 38 41 40
53 54 55 56 57 60 60 60 59 58 57 57 57 56 55 55 55 53 54 53 54 54 54 52 51 51 48 39 31 43 44 41 28 31 29 18 18 18 17 13 13 17 20 21 27 40 32
53 53 53 55 57 57 60 59 59 58 57 57 57 56 55 55 55 54 54 52 54 54 53 51 50 47 44 37 33 38 33 29 30 32 22 22 22 21 22 18 19 19 18 17 23 25 32
53 53 54 54 55 57 58 59 58 58 57 57 57 56 55 54 54 54 54 53 54 53 52 50 50 48 42 38 37 33 36 32 29 29 24 28 29 26 26 28 20 17 19 19 20 23 27
52 52 53 53 54 55 57 58 58 57 57 57 56 56 55 54 54 53 53 53 52 52 51 50 50 49 39 42 32 28 31 32 32 30 30 28 30 28 27 25 19 17 13 18 21 21 22
51 51 52 53 53 54 55 58 58 57 56 56 56 56 55 54 53 53 53 52 52 50 50 46 45 43 43 29 27 22 27 28 31 32 30 30 28 26 25 22 15 15 13 14 16 16 21
50 51 50 51 53 53 55 57 58 57 56 56 56 55 54 54 53 53 51 48 46 46 46 35 34 33 22 24 27 23 25 28 30 31 28 29 25 22 25 24 19 18 15 13 12 16 15
50 52 51 51 51 53 54 57 58 56 56 56 55 55 54 54 54 53 51 46 42 48 44 39 28 33 30 29 26 21 22 25 30 27 26 22 22 23 24 21 20 14 14 11 12 10 12
49 50 51 51 51 53 53 55 57 56 55 55 55 54 54 54 54 52 49 44 44 45 42 35 27 26 28 27 23 19 21 22 25 23 25 28 32 32 19 20 15 14 16 19 13 13 8
48 49 50 51 51 52 52 54 55 56 55 55 54 54 53 53 50 50 47 45 46 50 37 29 26 26 27 27 22 19 20 21 28 25 25 26 31 24 18 12 12 19 25 21 18 21 16
48 47 48 49 50 50 51 53 54 56 55 55 54 54 53 52 53 45 49 44 50 52 30 25 25 25 24 23 18 21 22 23 23 28 27 26 31 21 17 26 25 25 28 25 19 16 29
47 47 47 48 49 50 51 52 53 55 55 54 53 54 53 53 51 51 53 58 54 44 29 22 22 23 21 20 17 17 22 22 21 20 27 29 29 27 28 27 25 29 28 25 19 20 30
44 45 47 47 48 49 50 52 53 54 55 54 53 54 53 51 47 52 55 57 41 31 23 19 20 21 19 19 19 18 21 20 19 20 26 23 20 20 26 18 24 21 19 21 28 27 26
44 45 47 48 48 49 50 51 52 54 54 54 53 53 53 51 52 56 57 52 33 25 24 14 17 18 18 19 18 17 20 16 18 18 18 26 25 20 21 19 28 28 17 25 27 29 22
41 43 46 48 49 49 49 50 52 53 54 53 53 53 52 53 55 57 54 43 34 25 22 18 15 16 17 17 17 17 18 16 16 19 31 33 28 31 25 23 21 17 22 23 23 35 27
41 44 46 45 47 49 49 50 51 53 53 52 50 50 48 54 56 53 50 40 34 29 20 19 15 16 17 18 16 18 18 18 16 21 37 39 34 30 26 25 25 25 23 26 26 25 21
42 44 45 44 46 47 48 49 51 53 53 52 49 44 48 55 55 50 43 40 36 29 25 22 18 16 17 20 18 18 19 25 28 25 25 23 28 25 27 24 16 25 21 22 19 32 31
42 44 43 44 45 46 48 49 50 53 52 51 48 40 53 57 41 38 43 38 36 29 28 28 25 19 19 22 20 19 18 21 28 25 25 25 25 34 23 24 24 24 27 22 36 27 34
43 43 43 44 45 46 48 48 50 52 52 50 43 46 56 54 35 42 41 37 34 30 31 32 26 26 23 23 23 22 21 38 37 29 27 29 28 30 24 26 27 25 19 21 25 37 33
42 43 43 44 45 45 47 48 49 52 52 51 43 43 52 54 38 39 40 34 32 32 28 29 28 26 24 22 24 24 25 36 37 34 41 41 28 25 30 24 27 28 23 19 21 36 33
43 43 43 44 45 47 47 48 48 51 52 51 49 42 47 45 43 41 41 35 31 28 30 31 28 23 28 28 26 28 28 37 37 39 35 35 30 27 23 23 25 26 22 21 18 23 25
42 43 44 44 44 46 46 48 49 51 51 49 46 41 45 42 42 42 42 37 31 27 32 31 31 27 30 30 29 29 30 37 35 38 35 36 36 37 36 28 26 25 24 23 20 18 19
41 43 44 44 45 46 45 45 48 50 51 48 47 50 45 43 42 42 43 38 33 32 33 31 31 31 30 36 38 41 42 41 36 39 39 39 43 39 34 29 31 30 32 26 25 20 20
42 42 44 46 46 46 45 46 48 50 50 47 48 51 47 42 40 41 41 35 31 32 36 34 35 36 42 41 42 41 38 37 38 39 39 43 42 41 37 33 29 21 20 20 21 20 20
42 43 44 45 45 46 47 47 47 48 50 50 55 54 50 45 42 39 39 35 34 33 37 37 43 44 45 42 42 39 44 41 37 31 33 38 42 39 37 31 24 21 18 18 19 20 24
43 44 45 46 46 46 46 46 47 48 48 51 53 57 56 46 44 37 35 36 37 44 44 44 45 48 46 50 48 37 35 32 33 34 31 32 43 42 35 35 31 31 25 27 25 24 25
44 44 45 46 46 46 46 47 47 46 48 50 51 56 56 46 43 39 36 36 37 45 44 44 44 44 46 49 43 44 40 30 34 35 37 39 41 37 36 37 36 25 25 27 28 33 34
43 45 46 46 46 47 47 47 47 46 49 51 51 55 55 47 42 42 39 37 39 45 46 46 44 45 51 46 46 46 44 42 37 31 36 36 39 37 40 36 32 26 27 32 40 41 36
44 45 46 46 46 47 46 46 48 48 50 50 49 54 58 54 50 54 52 50 48 41 47 49 44 44 47 46 47 50 41 39 40 38 32 36 38 41 36 38 38 31 32 34 37 38 37

GFSGBSN_sfc_dewp_021.txt.gz
Dewpoint
54 53 55 56 56 58 59 60 59 58 58 57 57 57 57 56 56 55 53 52 52 54 53 54 53 52 50 46 45 52 59 59 43 36 33 32 32 23 19 18 18 16 18 38 40 44 42
53 53 53 54 56 57 58 59 60 58 58 57 57 57 56 56 56 55 54 52 52 54 54 54 52 52 48 42 45 54 46 41 32 34 34 34 26 19 18 19 17 19 18 38 40 42 41
52 54 53 54 54 55 57 57 59 59 58 57 57 56 56 56 55 55 54 54 52 54 54 53 52 48 45 40 38 41 41 35 28 30 30 30 25 28 27 26 29 22 18 21 36 41 39
53 53 54 53 54 54 56 56 58 59 58 58 57 56 56 55 54 54 54 53 53 54 54 53 51 48 45 43 42 38 34 30 30 31 32 31 32 31 28 29 27 18 21 21 24 34 38
52 53 53 52 53 54 54 55 56 58 59 57 57 56 55 54 54 53 53 53 54 54 53 52 48 48 45 47 39 36 34 34 31 30 30 28 30 31 29 27 24 23 15 20 22 24 30
51 52 52 52 52 53 54 55 56 57 58 57 56 56 55 54 53 53 53 53 53 52 51 48 46 43 42 36 35 29 30 33 33 34 33 33 29 28 27 25 21 19 17 17 20 22 23
50 51 51 52 52 52 52 54 55 56 57 57 56 56 55 54 53 53 51 50 46 47 46 42 38 37 31 32 29 27 29 29 33 32 32 31 26 25 27 25 24 19 16 16 16 18 21
50 50 50 51 52 51 51 52 53 56 57 57 56 55 55 54 53 54 51 48 44 45 43 44 39 36 32 33 29 27 27 28 33 31 38 27 26 29 27 25 25 23 21 19 17 15 14
49 50 50 50 52 52 51 52 52 55 57 56 56 55 54 53 53 52 49 47 45 47 43 41 42 37 29 32 29 26 23 24 29 30 29 28 31 31 30 29 24 25 25 20 17 12 11
48 48 49 50 50 52 51 51 53 54 56 56 55 54 53 53 49 50 49 49 49 47 41 34 37 28 26 29 29 26 24 24 32 30 28 29 31 30 29 27 21 19 27 27 23 22 16
46 47 48 49 49 50 51 51 52 54 55 56 54 54 53 52 51 50 49 52 48 49 31 29 31 29 27 28 27 22 24 26 26 30 31 29 29 30 29 26 24 24 26 28 27 24 27
47 46 46 48 49 49 50 51 51 52 54 55 54 53 53 52 51 50 51 51 55 42 31 30 28 25 25 27 26 21 24 28 31 30 29 29 28 31 31 28 24 29 29 31 29 25 24
47 46 46 47 48 48 48 50 50 52 53 55 54 53 52 51 48 52 51 53 40 32 30 25 24 25 25 24 23 21 24 23 21 25 28 27 25 31 34 28 29 30 24 25 22 26 25
45 46 46 46 46 47 48 48 50 51 53 54 53 53 52 51 52 53 55 48 36 32 31 24 25 25 23 22 22 22 23 22 22 22 27 26 27 33 33 25 27 29 26 27 23 27 27
45 46 45 45 44 46 48 47 49 51 53 54 53 52 51 51 52 53 52 40 34 35 25 28 21 22 21 21 20 21 20 22 19 19 27 31 31 34 34 34 28 26 26 30 34 35 32
44 46 45 44 44 45 47 47 49 51 52 53 52 50 49 52 54 52 47 38 39 35 33 27 25 21 20 20 20 19 21 21 21 21 37 38 31 36 36 36 27 27 27 26 30 23 20
44 45 44 43 44 45 47 48 49 51 52 53 51 46 47 52 54 50 38 39 40 39 35 33 27 21 20 23 22 22 22 21 27 34 36 37 36 36 36 31 24 26 24 24 25 29 24
43 44 44 43 43 43 47 48 47 50 51 51 50 42 48 53 43 42 38 40 40 38 39 37 32 25 23 28 27 22 24 37 32 32 33 37 36 31 30 28 26 25 31 33 26 20 28
42 43 43 43 43 45 46 46 48 49 51 49 47 45 51 47 34 38 37 40 41 38 38 35 34 33 34 27 29 24 34 41 39 33 31 35 27 25 22 27 31 26 25 23 33 32 25
42 43 42 42 44 44 45 45 48 48 51 50 47 40 49 49 35 36 33 36 39 41 38 36 33 35 31 29 31 30 38 41 40 38 40 39 31 27 24 25 29 29 27 26 26 26 25
41 42 42 42 43 45 45 45 47 48 51 50 47 38 44 42 42 34 35 37 38 38 37 35 33 32 31 25 29 28 38 39 40 40 37 35 28 29 31 32 29 28 28 27 23 27 25
41 41 42 43 43 43 45 46 46 48 50 47 45 40 47 42 43 40 36 37 36 35 35 32 33 32 30 28 33 30 36 38 36 39 35 36 34 33 32 32 31 29 28 27 27 26 23
42 42 43 43 43 44 45 46 45 48 50 46 45 48 45 43 42 38 34 38 38 37 36 31 36 35 33 38 39 42 42 44 41 39 36 36 34 30 28 29 27 22 24 27 28 27 26
43 43 43 43 43 45 45 45 47 47 49 48 44 48 46 40 41 36 36 39 37 37 38 34 37 37 42 44 43 42 40 45 45 44 42 36 34 31 27 26 13 24 25 22 26 24 24
43 43 42 43 44 45 44 46 47 47 49 47 48 50 48 36 40 35 38 39 42 41 38 43 45 43 45 44 40 36 33 28 34 35 40 43 34 31 24 25 25 23 26 27 24 24 27
43 43 43 44 44 44 45 46 45 47 50 47 45 49 50 46 40 36 36 40 41 40 44 47 49 48 46 45 34 30 29 30 31 32 38 35 36 29 27 24 17 29 28 29 27 24 33
42 42 41 44 46 45 45 45 46 47 48 47 47 50 48 49 45 40 37 40 42 44 44 46 46 43 47 35 35 29 29 34 32 31 29 30 30 26 25 23 29 34 28 30 19 25 35
42 41 43 45 45 45 45 46 47 47 47 47 45 48 51 49 48 45 42 41 45 45 41 47 44 43 40 36 34 33 31 32 32 36 33 31 30 27 30 29 26 33 29 24 36 36 35
43 43 44 44 45 45 46 46 47 47 47 47 44 48 53 49 51 53 51 52 50 47 47 46 44 44 45 40 40 37 34 35 31 28 36 31 36 32 33 32 38 31 31 37 34 33 33

GFSGBSN_sfc_dewp_024.txt.gz
Dewpoint
53 53 54 55 56 56 57 58 60 59 58 58 57 57 57 57 57 56 55 54 52 52 54 54 54 53 49 45 45 51 60 60 46 37 33 30 34 32 23 19 19 17 27 38 41 42 42
54 54 54 54 54 55 54 57 57 59 59 58 57 56 56 57 56 56 55 54 53 53 54 54 53 52 48 36 46 51 47 41 36 34 34 33 33 27 21 20 19 22 35 37 42 39 38
53 53 54 54 54 54 54 56 57 58 59 58 57 56 56 56 56 55 55 54 54 54 54 54 52 48 46 32 44 47 40 35 30 31 31 32 30 29 32 25 29 25 31 38 41 39 37
52 54 54 54 54 54 54 55 56 56 58 59 58 56 56 55 55 54 54 54 53 54 54 53 52 48 41 44 44 38 38 33 32 31 31 31 32 30 31 29 27 20 21 29 37 40 37
52 52 53 53 53 54 54 54 54 55 57 58 58 56 55 55 54 53 53 53 53 54 54 53 48 48 43 47 42 43 36 31 31 31 32 28 32 31 28 27 23 22 14 19 31 38 36
52 52 52 53 53 53 54 54 54 55 56 57 58 57 55 54 54 53 53 53 53 52 50 49 47 40 40 34 39 34 35 34 33 34 32 33 29 28 27 24 19 18 16 17 20 22 33
51 49 52 52 52 53 53 53 54 54 55 56 57 57 55 54 53 52 51 49 45 46 46 37 31 35 31 34 34 27 30 31 34 32 29 33 25 24 25 27 26 24 23 16 16 20 22
51 51 51 49 49 51 52 52 52 53 54 56 57 56 55 54 53 53 50 46 45 43 41 44 42 40 38 37 30 29 29 28 32 29 35 29 27 28 29 29 28 29 22 21 21 19 17
50 50 51 48 49 50 51 52 51 52 53 55 56 56 55 53 53 52 48 47 47 46 42 43 45 43 42 33 31 29 27 29 31 30 29 25 26 31 31 27 28 27 23 24 21 11 18
49 49 49 50 50 51 51 52 51 52 53 54 56 55 53 52 48 49 49 50 50 47 39 37 39 40 29 29 29 30 26 26 30 29 29 27 31 30 31 29 29 24 24 26 23 20 12
50 49 48 49 49 49 49 50 51 52 53 54 55 54 52 51 50 49 49 50 48 48 21 30 38 34 27 28 28 25 27 27 27 29 27 26 30 29 29 28 27 24 28 26 26 24 24
47 49 49 48 48 48 49 49 50 51 52 53 55 54 53 52 51 49 49 51 53 38 27 34 30 27 26 28 27 26 22 29 31 30 31 27 30 29 28 31 27 27 28 30 31 28 24
46 48 49 48 47 47 47 49 49 50 52 53 54 54 52 51 46 52 53 52 39 33 32 29 26 27 26 26 27 26 24 23 26 24 26 26 27 30 33 28 28 28 24 21 20 23 22
45 49 49 48 47 46 46 48 48 49 51 52 54 53 52 51 51 52 54 48 34 33 34 31 27 26 24 25 25 24 23 21 24 24 27 24 24 32 35 30 28 28 25 23 17 23 24
45 46 48 48 47 47 46 47 48 47 50 51 53 52 52 51 51 52 51 40 32 37 30 28 26 25 24 25 22 22 23 22 21 21 23 29 29 36 36 35 33 29 25 29 31 34 30
45 46 47 47 47 47 47 47 48 47 49 51 50 51 50 51 51 50 46 36 37 39 36 30 25 25 23 22 22 20 21 23 23 23 32 33 28 35 35 34 34 31 27 25 29 25 24
44 45 45 45 45 45 45 46 47 47 47 50 49 45 50 52 51 46 38 36 38 38 38 37 32 28 23 23 22 23 21 21 24 34 36 36 29 32 36 32 29 28 24 25 27 27 22
44 44 45 45 45 45 44 45 46 47 48 48 47 40 50 52 40 40 39 38 38 38 40 41 38 34 25 25 25 25 24 25 32 36 31 35 34 31 32 31 32 30 27 28 24 19 27
44 43 44 45 46 45 44 45 46 46 47 45 43 44 51 48 34 36 38 39 38 36 39 39 36 35 30 27 24 28 30 40 38 34 33 34 29 24 24 24 32 26 25 30 31 29 24
44 43 43 45 46 45 44 44 46 48 48 47 44 39 46 46 39 32 35 37 37 37 37 39 39 38 33 31 34 32 36 39 41 37 41 38 29 24 21 21 27 27 28 27 29 25 25
44 43 43 44 45 44 44 44 45 47 48 47 44 37 40 37 39 34 34 36 36 34 38 39 36 37 35 28 32 28 38 38 39 40 38 34 27 28 27 31 30 28 27 28 25 26 24
44 43 43 43 43 43 44 45 43 46 49 44 41 41 42 40 38 36 34 33 32 33 35 34 36 36 34 27 30 31 37 37 34 37 33 36 29 32 30 31 30 27 27 27 27 26 27
43 42 42 42 43 43 44 44 45 46 47 44 45 46 44 39 39 37 33 33 31 31 37 34 35 35 33 32 37 37 40 40 39 36 35 34 32 29 26 28 26 25 25 25 26 27 26
43 42 43 42 43 43 45 44 45 45 45 47 45 46 43 37 40 38 35 33 32 33 33 36 34 36 39 42 40 38 39 42 43 42 41 34 32 29 26 24 17 27 27 26 26 25 27
42 42 42 42 42 43 44 44 45 46 46 45 49 45 45 35 41 41 38 33 33 36 40 36 42 41 43 41 37 33 32 31 35 38 40 41 34 30 23 24 25 24 25 22 22 26 29
42 42 42 42 43 43 44 44 44 45 45 46 46 48 46 41 40 41 39 35 34 37 37 44 48 48 47 41 32 28 25 28 30 31 35 38 35 31 27 21 16 25 29 28 27 25 32
42 42 43 43 43 43 43 44 44 45 46 47 46 48 45 42 46 41 38 35 35 42 38 45 45 44 44 35 32 28 29 33 29 28 28 28 28 24 22 20 25 30 31 27 17 21 33
42 43 42 43 43 44 44 44 44 46 47 47 46 49 46 44 46 50 40 36 39 43 40 44 43 44 39 35 34 31 28 32 32 34 32 28 28 25 30 24 21 35 28 23 28 35 35
43 43 43 43 44 44 44 45 45 46 47 47 45 49 50 45 46 51 48 49 41 45 47 45 43 44 46 40 38 36 32 30 30 29 36 27 31 29 30 29 34 32 33 37 35 34 34

GFSGBSN_sfc_dewp_027.txt.gz
Dewpoint
53 53 54 55 55 56 55 57 57 58 59 58 58 57 57 57 57 57 56 55 55 54 53 53 54 54 49 39 34 50 60 59 53 38 32 29 32 31 24 21 21 18 18 24 40 43 43
51 54 54 54 54 54 52 55 57 56 57 59 58 57 57 56 57 56 55 55 54 54 54 54 54 53 46 21 42 51 50 45 38 34 31 32 32 30 26 21 19 22 33 39 40 41 40
52 53 54 54 54 54 54 54 55 56 57 58 58 57 57 56 56 56 55 54 54 54 54 54 53 49 45 26 45 46 43 39 33 32 32 34 34 30 28 24 30 30 36 39 39 39 38
53 53 53 54 54 54 54 54 54 55 56 57 58 58 56 56 55 55 54 54 54 54 54 53 52 47 43 40 45 42 40 35 32 31 30 31 33 31 29 28 27 20 27 25 33 39 39
52 53 53 52 53 53 54 54 54 54 55 55 57 57 56 55 54 54 53 53 54 54 53 53 47 46 41 44 42 45 38 34 31 31 31 30 31 30 27 25 21 21 16 22 31 39 36
52 52 52 53 52 53 53 53 54 54 54 55 56 57 57 55 54 53 53 53 53 52 50 49 47 36 34 31 36 37 40 36 34 34 31 32 29 27 26 23 18 21 18 17 23 32 37
52 52 52 52 52 52 52 53 53 54 54 54 55 57 57 55 54 52 50 48 43 45 45 31 27 28 30 35 35 33 34 34 34 32 29 31 26 24 25 26 27 25 24 22 20 21 32
50 50 52 51 51 52 50 52 52 52 53 54 55 56 56 55 54 53 49 44 42 44 39 43 42 39 38 39 37 31 31 29 31 28 34 29 27 27 29 29 29 28 26 24 23 20 23
49 50 51 51 51 51 51 50 51 52 52 52 53 56 56 54 53 51 47 46 47 46 36 38 44 43 42 41 37 30 28 30 30 29 31 25 25 30 29 26 27 27 26 24 23 16 22
47 49 50 50 50 51 50 50 50 51 52 52 52 54 54 52 49 49 48 50 50 48 34 34 42 42 41 33 29 32 28 29 31 28 29 27 29 30 30 28 28 25 27 25 24 17 13
47 47 48 50 50 49 49 50 50 50 51 52 52 54 53 52 47 50 50 49 48 47 16 23 38 38 31 27 27 28 26 28 25 29 27 26 28 28 27 26 28 25 27 26 27 23 23
46 46 46 48 49 49 48 49 49 49 51 51 52 54 53 51 50 48 49 52 51 34 20 28 35 29 26 27 27 25 25 29 28 29 29 26 29 28 27 30 29 27 29 28 30 27 22
46 45 45 46 48 50 48 48 49 49 49 50 52 54 53 51 46 52 52 52 39 29 26 30 29 27 25 26 25 26 22 27 26 24 25 26 27 29 33 28 29 27 24 19 18 22 21
47 46 45 45 47 48 49 47 48 48 48 49 51 53 53 51 51 51 54 47 33 33 34 36 28 27 23 26 25 26 23 21 23 24 25 23 23 29 34 29 28 29 24 22 14 21 21
47 46 46 45 45 47 48 48 47 48 48 50 50 51 52 53 52 50 50 39 32 33 35 25 27 25 25 25 24 25 23 22 21 26 22 27 26 35 35 35 31 30 25 28 30 31 27
48 47 46 45 45 47 48 47 46 47 48 49 46 47 48 52 51 48 45 36 37 38 38 36 25 26 23 24 23 22 23 23 22 24 27 29 23 33 35 35 34 30 30 25 28 23 22
48 47 46 45 45 48 48 48 46 47 47 48 45 43 47 52 51 44 36 36 38 38 39 38 34 27 25 24 24 23 22 21 25 26 30 33 25 26 34 31 26 28 25 26 27 26 20
48 48 46 45 45 48 48 47 46 46 47 47 43 37 51 51 43 40 34 37 38 37 39 40 40 38 30 26 24 24 22 23 28 35 29 33 29 26 26 31 31 30 29 27 24 19 26
48 48 46 45 45 47 48 48 46 45 46 43 39 42 51 47 37 36 36 36 38 36 36 38 38 38 34 27 23 26 27 33 37 33 32 34 29 25 24 27 29 28 27 30 29 27 24
48 48 46 45 45 47 47 47 45 45 45 44 41 36 44 46 40 36 34 35 37 39 37 38 38 40 36 30 30 29 31 38 39 36 42 35 29 26 24 24 27 27 28 29 28 26 24
48 48 46 45 45 45 45 45 45 44 45 43 41 35 38 37 38 38 34 34 36 35 38 35 35 38 37 32 30 31 37 37 38 40 37 34 27 26 25 24 29 27 27 28 26 26 24
48 47 46 45 44 43 45 45 44 44 45 41 38 39 41 38 37 37 36 33 33 36 36 33 30 35 33 34 31 29 35 35 33 36 34 35 27 30 29 30 29 26 27 26 27 26 26
48 47 46 44 44 44 45 45 43 44 44 41 43 43 43 37 36 35 34 33 33 37 37 35 34 34 36 36 36 34 38 37 35 35 33 32 30 28 24 28 27 24 25 26 25 25 26
48 46 45 45 44 45 45 44 44 45 44 45 43 44 42 34 37 34 32 34 33 34 33 34 33 36 37 43 40 38 38 39 43 42 37 31 29 28 25 24 18 27 29 26 26 26 27
47 46 45 45 44 44 44 43 44 44 44 42 46 43 43 34 36 36 35 34 34 34 34 32 37 33 42 39 36 34 31 33 33 38 41 37 31 28 24 24 25 25 24 26 24 24 29
46 45 45 44 44 43 43 43 44 44 44 42 42 46 43 40 36 38 36 35 34 33 33 39 35 46 44 38 32 28 29 31 30 33 36 34 34 31 25 21 19 27 27 27 28 24 30
45 44 44 43 43 42 42 43 44 44 45 44 43 45 44 39 44 42 39 37 35 34 33 39 44 44 43 32 28 27 26 32 28 29 27 29 28 27 22 21 23 26 29 24 20 23 33
44 43 42 42 42 42 43 44 44 44 46 44 42 48 44 40 41 47 45 40 38 35 34 39 43 43 36 35 33 29 28 32 29 31 29 30 28 24 25 20 20 31 30 22 28 34 35
42 42 42 41 41 42 43 44 44 44 45 45 41 48 49 44 43 46 44 45 46 38 37 45 40 43 43 38 37 34 29 28 30 29 35 26 30 29 29 28 32 33 29 31 36 35 34

GFSGBSN_sfc_dewp_030.txt.gz
Dewpoint
52 52 53 54 54 54 53 54 55 57 57 58 59 58 58 58 58 57 56 55 55 54 54 54 54 54 49 34 26 51 61 59 52 40 34 27 31 30 25 22 21 19 19 26 38 43 43
52 51 52 53 54 53 52 53 54 55 56 56 57 58 58 57 57 56 56 55 54 54 54 54 54 53 45 17 37 51 51 43 41 35 30 29 31 31 28 26 20 22 26 36 41 42 42
51 53 53 53 53 54 54 54 54 54 54 56 57 58 58 57 56 56 56 55 54 54 54 54 53 49 44 23 43 44 43 39 37 33 31 33 34 30 30 26 29 32 34 37 40 39 37
51 52 52 53 52 51 52 53 54 54 54 54 55 57 57 57 56 55 55 54 54 54 54 53 52 48 40 39 44 45 41 37 33 34 31 29 33 31 30 28 25 22 28 23 39 40 38
53 49 50 52 53 52 53 50 53 54 54 54 54 54 56 56 55 54 54 54 54 54 54 53 47 47 33 41 37 40 39 35 32 30 30 29 32 29 27 25 20 20 16 19 33 39 37
49 51 50 51 51 52 52 52 50 53 53 54 54 54 55 56 55 54 53 53 53 51 51 50 47 35 27 29 36 38 42 35 34 33 32 31 29 26 26 22 17 21 21 25 22 33 37
47 49 50 52 51 51 52 52 52 53 53 54 54 54 55 56 55 53 50 47 39 43 45 35 26 22 25 34 40 33 38 36 34 31 28 31 26 23 22 25 25 25 25 24 22 23 35
49 48 49 50 52 50 51 52 51 51 51 52 54 53 54 55 55 53 49 43 42 44 40 42 41 36 36 41 40 35 35 31 32 29 32 28 27 26 27 29 28 27 25 23 23 20 31
48 48 49 49 49 51 51 51 51 51 51 51 52 52 52 55 53 51 46 44 48 48 40 36 41 41 40 41 38 36 30 30 29 28 30 26 24 30 29 26 26 25 25 25 23 18 23
47 47 48 48 49 50 51 50 50 50 51 52 51 51 51 54 50 48 45 49 50 49 31 30 39 41 41 41 32 34 29 30 31 26 30 29 28 28 28 26 27 24 27 27 24 17 15
48 47 47 47 47 48 50 50 49 50 49 50 51 51 52 53 47 48 49 48 49 45 15 24 39 40 39 29 28 29 28 27 27 29 28 26 28 28 27 26 28 25 28 27 26 23 23
48 48 47 47 47 47 49 50 49 49 49 49 49 51 52 53 51 48 49 51 49 34 15 21 34 34 29 27 27 25 25 28 28 28 29 26 28 28 26 29 28 29 28 24 28 25 21
48 48 48 47 47 47 47 49 50 48 49 49 49 50 52 52 48 50 51 50 40 29 25 22 33 29 26 25 25 24 25 27 24 23 25 26 26 28 32 27 29 27 22 18 16 22 21
48 48 48 47 47 46 46 47 49 49 49 48 49 50 51 52 51 49 52 45 32 31 27 33 30 27 23 24 24 25 22 24 25 24 24 22 20 29 31 27 24 27 24 21 12 19 17
48 48 48 48 47 47 46 46 48 49 48 48 49 47 48 50 52 50 48 36 31 32 34 29 27 24 24 24 24 24 24 23 24 25 21 24 23 33 34 34 29 28 24 26 28 29 26
48 48 48 48 47 46 46 46 48 49 48 48 45 45 43 52 53 49 42 34 35 34 38 37 24 26 23 24 22 23 23 24 22 27 28 28 21 31 33 34 33 29 31 25 27 21 21
48 48 48 48 48 46 46 45 47 49 47 48 45 40 40 52 52 45 35 34 35 38 39 38 37 32 26 25 24 24 24 23 25 24 27 29 23 22 33 29 24 27 26 26 27 25 20
48 48 48 48 48 47 46 46 46 47 47 46 42 34 47 51 42 40 36 35 36 37 39 38 39 39 34 27 25 24 23 24 27 32 26 31 26 22 24 29 30 28 27 28 25 21 26
47 48 48 48 48 47 46 45 46 47 47 41 38 38 49 45 33 35 36 36 36 35 36 38 37 39 36 29 23 26 26 28 34 30 29 32 26 22 21 24 29 28 28 28 28 27 24
46 47 48 49 49 47 47 45 46 47 46 42 39 33 41 43 37 33 34 34 33 38 37 37 37 39 36 33 30 25 26 36 36 31 40 34 29 23 20 20 25 27 27 30 28 25 24
45 46 47 47 49 47 46 46 47 46 46 43 39 34 37 36 35 35 33 33 33 32 36 38 35 38 35 32 29 30 35 37 36 41 35 30 24 26 25 24 26 26 26 28 26 26 24
45 45 46 47 48 47 46 46 47 46 46 42 36 36 39 37 34 34 36 33 32 32 35 34 34 35 37 36 31 28 35 34 32 35 33 33 27 27 28 29 29 28 26 27 27 27 26
45 45 46 47 48 47 46 47 47 45 46 39 40 40 41 35 34 32 32 32 32 35 35 36 35 34 35 34 34 35 34 37 36 34 33 30 30 27 24 29 26 24 26 27 27 27 26
45 45 46 46 47 47 46 46 45 45 44 39 38 42 39 34 35 32 31 34 33 34 35 36 37 34 33 41 40 38 37 40 41 40 36 29 28 28 24 25 17 25 29 27 26 26 26
45 46 46 46 47 46 46 45 44 44 43 40 41 40 40 34 34 35 33 31 35 34 36 36 35 36 42 40 37 34 32 31 33 37 37 35 30 27 24 24 23 25 25 25 25 23 27
45 45 47 47 46 45 45 46 45 44 43 40 41 43 42 37 35 35 34 33 33 33 34 36 38 42 42 39 33 30 30 31 30 32 34 33 32 29 23 21 19 27 28 27 26 22 29
45 45 47 46 46 45 44 45 45 44 44 41 41 43 41 36 41 39 35 34 34 34 33 35 38 42 41 30 29 29 29 33 30 30 29 29 28 26 21 20 26 29 27 26 20 23 31
45 46 45 45 45 44 44 44 44 44 44 42 40 45 41 39 39 42 44 37 36 35 32 37 41 41 34 33 32 31 28 32 29 31 32 32 30 25 25 20 24 29 29 24 28 33 33
45 45 45 44 44 44 43 43 43 44 44 42 37 42 45 42 42 45 43 43 42 38 35 39 35 42 41 38 35 33 29 27 30 28 33 28 32 30 30 29 32 32 30 31 33 34 34

GFSGBSN_sfc_dewp_033.txt.gz
Dewpoint
51 52 52 51 50 51 52 53 54 54 56 56 56 57 59 59 58 57 56 56 55 55 54 54 54 54 49 33 19 54 61 58 52 40 29 27 29 28 25 23 22 22 21 23 25 42 43
52 52 52 53 52 50 50 53 54 54 54 54 54 56 57 58 58 57 56 56 55 55 54 54 54 53 44 23 42 53 52 46 42 36 30 30 31 31 29 27 21 23 25 37 41 42 42
53 52 53 53 53 52 49 49 52 53 54 54 54 55 56 57 58 57 56 55 55 54 54 54 54 49 43 26 43 49 43 38 39 33 27 30 33 30 29 28 27 30 33 37 39 41 40
49 50 53 52 52 51 52 49 48 51 53 54 54 54 54 54 56 57 56 55 54 54 54 54 52 48 37 37 43 43 43 39 36 36 31 30 33 31 30 30 25 23 27 23 36 41 40
48 48 51 52 52 52 51 52 52 48 52 53 54 53 53 54 54 56 55 54 54 54 54 53 48 47 29 39 34 38 40 37 33 30 31 29 31 30 29 25 22 23 17 20 31 39 38
47 48 48 50 51 52 51 52 52 51 48 52 53 53 53 54 54 55 54 53 53 51 51 50 47 37 27 26 35 41 41 35 32 32 31 31 30 28 27 23 19 22 22 22 24 34 36
46 46 46 48 49 51 53 51 52 52 52 52 52 53 54 53 55 54 51 47 39 42 47 39 33 26 20 33 40 33 40 37 34 32 30 32 27 24 23 27 24 25 24 23 23 23 34
49 48 46 47 48 49 50 52 51 52 52 51 51 51 52 52 55 53 50 44 41 45 41 43 41 37 34 40 38 38 39 34 34 30 32 30 29 28 26 28 27 27 25 23 24 23 31
48 49 49 48 46 48 49 50 52 50 51 50 51 51 51 50 54 52 49 45 48 49 43 40 41 40 39 39 37 36 35 33 31 30 31 29 25 29 29 28 27 26 25 25 24 20 24
48 48 48 48 48 48 48 49 50 51 50 50 49 51 50 51 51 49 47 48 50 50 33 29 35 39 41 41 34 37 32 32 31 29 31 29 30 28 28 26 26 24 27 25 25 20 16
49 48 48 48 48 48 48 47 48 51 50 49 49 50 50 52 49 47 47 50 50 47 20 26 39 40 41 32 29 31 31 31 31 30 30 28 28 29 28 27 28 26 29 27 25 22 25
48 48 48 48 48 48 48 47 47 49 51 49 49 49 50 51 51 50 50 52 50 34 21 19 36 37 36 30 28 27 28 32 31 30 29 29 28 29 28 29 29 29 28 24 28 27 23
48 48 48 48 48 48 48 47 47 48 49 49 49 48 48 50 47 52 52 49 38 31 28 20 32 32 31 26 26 26 28 29 26 26 27 26 27 28 32 27 29 27 25 22 16 23 21
48 48 49 48 48 48 48 47 47 47 49 50 48 48 48 48 53 51 52 43 30 30 27 29 29 29 29 25 26 25 26 25 26 25 25 22 21 28 31 28 26 28 27 25 15 19 16
49 49 49 49 48 48 48 47 47 47 48 49 48 47 47 48 50 51 47 35 30 32 32 28 26 26 24 24 24 26 27 26 25 27 24 26 22 31 34 33 28 27 26 27 29 31 27
49 49 48 48 48 48 48 47 47 47 47 49 46 44 42 48 51 50 42 32 35 34 35 37 21 27 25 25 25 24 26 26 25 28 31 30 23 31 33 34 34 29 30 28 29 22 21
48 48 48 48 48 48 48 48 47 47 47 48 44 39 41 48 50 44 32 33 34 36 37 36 37 32 28 26 26 26 25 25 26 25 28 31 28 25 32 30 26 29 29 28 28 28 23
48 48 48 48 48 48 48 48 47 46 47 47 41 32 44 45 37 38 33 34 36 33 39 38 39 39 37 29 27 27 26 27 29 30 28 32 32 27 25 29 29 29 30 30 30 24 27
47 49 49 49 48 48 48 48 47 46 47 44 36 38 45 42 31 32 34 34 34 35 35 38 38 39 39 34 26 28 28 30 33 30 31 33 28 24 22 25 30 29 29 29 29 29 27
46 47 48 48 49 48 48 48 47 47 47 44 38 32 40 41 35 32 33 31 31 36 35 38 38 39 37 35 34 28 29 34 36 32 40 34 30 27 21 23 28 29 28 29 30 29 28
45 45 45 46 47 49 48 48 47 47 46 43 39 34 37 32 33 35 33 30 32 32 34 37 36 37 36 32 32 30 33 38 37 40 36 35 28 29 25 23 27 27 28 29 27 29 29
45 45 44 44 45 47 49 48 47 46 46 41 36 36 36 35 32 32 34 32 31 32 32 34 32 34 36 36 32 31 36 36 35 37 35 34 29 29 27 28 27 27 27 29 28 27 27
45 45 45 44 45 45 48 48 47 47 46 40 41 40 36 33 33 32 29 31 31 34 34 33 36 36 35 34 39 39 38 38 38 37 35 34 33 30 25 29 30 29 30 28 29 29 29
45 44 45 45 46 45 46 48 47 46 45 43 40 40 36 29 34 32 30 29 31 34 34 33 37 37 37 41 42 41 39 40 40 39 38 33 33 31 29 28 26 28 29 28 29 29 28
45 45 45 45 46 46 45 47 47 46 46 41 41 40 39 30 33 34 32 30 32 35 35 35 38 39 42 41 36 31 36 36 36 36 37 35 33 29 30 27 27 24 27 28 28 24 28
46 45 45 45 45 45 45 47 46 46 46 41 41 43 42 34 33 34 34 32 30 34 34 38 41 43 41 39 35 30 31 33 33 33 34 33 34 35 27 27 25 31 29 29 27 25 30
45 46 45 45 45 45 46 46 46 46 45 40 41 43 42 37 38 41 35 34 34 34 34 38 38 40 40 35 34 32 33 35 32 32 33 33 32 31 27 32 30 30 28 29 26 28 33
45 44 45 45 45 45 46 46 47 46 45 40 41 43 40 38 39 41 41 38 35 34 33 38 37 39 38 34 35 34 33 35 34 34 34 34 32 32 29 32 28 31 27 29 35 33 35
45 45 45 44 45 46 45 45 45 45 45 41 40 45 44 39 39 44 44 45 42 36 35 40 36 36 39 38 37 35 35 34 33 31 34 34 35 34 34 35 38 33 35 34 34 34 36

GFSGBSN_sfc_dewp_036.txt.gz
Dewpoint
53 52 52 52 52 52 50 52 53 54 54 54 54 54 55 56 58 59 58 56 56 56 56 55 55 55 47 31 18 47 62 57 45 35 29 29 27 26 22 23 24 23 22 24 28 30 40
50 52 53 53 52 51 51 51 52 53 53 53 54 54 55 56 57 58 58 57 56 56 55 54 54 54 42 25 36 49 46 44 36 32 28 28 29 29 28 26 25 25 27 35 34 39 42
49 49 51 53 53 52 51 52 52 51 53 53 53 54 54 54 55 56 57 57 56 55 55 54 54 47 41 31 36 46 41 35 35 30 27 27 31 30 29 26 27 26 32 30 35 40 40
48 49 49 50 51 53 52 51 52 51 51 51 53 53 53 53 53 54 56 56 55 55 55 54 53 47 36 33 35 42 40 36 36 33 32 30 31 31 30 29 26 24 28 27 34 36 38
47 47 48 50 50 51 53 52 51 52 51 50 52 52 53 53 53 54 55 56 55 54 53 53 49 46 30 41 34 32 40 35 35 33 32 27 31 30 29 22 20 22 18 21 30 34 36
47 47 47 49 50 50 51 52 52 51 51 50 49 49 51 53 53 54 54 54 54 52 51 49 46 41 34 18 27 39 35 35 32 30 30 31 31 26 22 18 16 18 18 21 27 34 35
47 48 48 49 49 49 48 49 51 52 51 51 50 49 49 52 52 54 53 50 45 44 47 38 34 33 17 29 39 36 39 35 34 33 29 32 25 21 17 19 22 21 20 18 21 26 29
49 49 47 49 49 49 46 48 49 51 51 51 51 49 49 51 51 54 54 48 44 46 38 38 39 37 36 31 32 35 39 34 34 29 31 30 24 21 22 23 25 25 20 20 22 23 26
49 49 49 49 49 50 49 48 48 49 51 51 50 50 49 50 52 53 51 50 48 48 43 36 39 35 34 36 31 29 36 33 31 28 30 26 25 28 26 27 25 25 22 21 23 22 24
49 49 49 49 49 49 49 49 49 49 49 51 50 49 50 50 50 49 47 49 49 50 36 22 31 35 36 34 33 29 34 31 29 27 28 28 28 27 27 24 26 22 24 24 24 22 17
49 49 49 49 49 49 48 49 48 48 49 50 51 49 49 50 48 48 48 51 52 51 17 20 34 38 37 28 25 29 33 31 27 27 29 25 27 27 26 24 26 23 28 26 25 23 24
49 49 49 49 49 49 48 48 48 48 47 49 51 50 49 48 47 49 50 53 51 37 16 18 34 36 35 33 25 27 30 30 28 27 29 25 28 27 24 27 27 29 27 26 28 25 22
49 49 49 49 49 49 49 48 48 48 48 48 50 50 48 45 42 49 53 51 37 27 21 15 29 34 29 27 24 25 26 27 23 25 26 26 25 26 28 26 30 28 25 21 18 21 20
49 49 49 49 49 49 49 48 48 48 48 48 48 50 48 44 45 49 51 45 24 13 19 26 29 31 28 23 23 25 24 24 24 22 21 20 21 24 27 26 24 26 24 23 17 18 14
49 49 49 49 49 49 49 48 48 48 48 47 49 48 48 47 47 48 46 34 17 13 21 17 22 27 29 23 21 24 24 22 23 25 22 22 18 26 29 28 26 27 25 25 26 31 24
49 49 49 49 49 49 49 49 48 48 48 48 45 44 45 47 50 47 39 32 22 17 25 26 20 21 26 24 21 22 24 24 22 24 24 24 20 27 32 33 33 29 28 26 28 22 18
49 49 49 49 48 48 49 49 48 48 48 48 45 38 43 47 49 41 33 31 27 21 29 29 27 20 23 27 22 22 24 24 25 26 24 23 24 29 32 30 25 29 27 28 26 27 21
49 48 48 49 49 48 48 48 48 48 48 47 42 33 45 46 37 37 33 32 29 24 32 34 35 31 25 27 26 22 22 24 27 26 26 26 26 26 23 28 30 25 24 27 27 22 27
47 46 46 47 49 48 48 48 48 48 48 45 38 38 47 42 30 33 32 31 31 28 27 33 33 36 37 33 27 26 24 33 30 28 26 29 26 24 22 25 28 25 25 25 27 30 26
44 45 45 45 48 48 48 48 48 48 48 43 38 32 39 41 34 30 30 29 29 31 29 30 32 35 37 35 34 28 26 32 33 28 39 35 25 24 22 20 20 26 24 25 25 28 26
45 45 45 45 46 48 48 48 48 48 48 43 39 35 38 31 33 29 30 24 27 29 29 32 34 34 35 33 33 31 29 35 33 38 31 33 24 24 20 18 17 18 18 22 24 25 25
45 45 45 45 45 46 48 48 48 48 47 42 36 35 38 31 34 28 27 27 27 28 27 29 32 34 34 33 31 32 35 35 31 36 32 33 26 26 25 21 22 21 20 19 24 23 24
45 45 45 45 45 46 47 48 48 48 47 40 42 35 35 33 33 29 27 27 26 28 31 26 29 32 35 36 38 38 39 38 36 36 35 34 33 30 24 29 27 29 28 23 24 26 28
45 46 46 45 45 45 46 47 48 48 46 45 38 36 35 29 33 29 26 28 28 30 29 29 32 31 35 42 38 37 39 37 37 36 37 36 34 33 29 33 31 23 28 27 26 26 27
45 46 46 46 45 45 45 46 48 47 46 44 41 38 34 34 29 29 27 27 29 31 33 31 31 34 40 38 35 31 36 37 38 38 38 38 36 33 36 28 25 24 27 28 28 26 27
45 45 45 46 45 44 44 46 48 47 46 42 41 42 41 34 29 28 33 30 29 31 32 33 34 44 43 41 36 28 20 24 30 35 35 36 37 38 32 29 31 26 26 30 29 26 26
44 45 46 45 45 44 43 45 47 47 46 42 44 46 42 34 31 30 32 36 33 30 31 34 38 40 40 40 39 33 28 26 22 34 36 35 35 36 34 35 29 29 29 29 27 30 31
45 45 45 45 44 44 44 44 47 46 46 41 41 46 42 37 37 39 39 37 37 33 33 35 38 39 40 37 37 35 38 35 30 29 35 34 35 36 35 36 33 32 29 29 34 37 34
45 44 44 44 44 44 44 45 46 46 46 42 40 44 45 40 40 42 42 41 44 36 34 40 34 35 36 35 39 39 41 39 36 31 36 35 36 35 34 32 35 34 34 34 37 34 36

GFSGBSN_sfc_dewp_042.txt.gz
Dewpoint
50 50 50 50 51 51 54 53 53 53 51 51 52 52 52 52 53 54 54 55 56 57 58 58 57 57 50 38 34 50 59 56 39 33 32 19 18 18 20 19 17 17 17 19 21 26 25
49 49 49 50 50 50 50 51 53 53 52 52 50 51 52 53 53 54 53 54 54 55 57 57 57 56 47 36 32 44 45 40 32 29 26 21 22 25 25 24 19 22 22 20 24 24 28
49 49 50 51 51 51 50 51 51 53 53 52 52 51 51 52 53 53 53 54 54 55 56 57 56 51 46 40 31 29 39 35 30 26 26 26 26 27 26 26 22 20 19 20 26 27 31
48 49 49 50 50 51 51 51 51 52 53 53 52 52 51 50 51 52 53 53 53 55 56 57 55 49 42 36 34 32 33 35 28 27 28 28 28 28 28 28 24 21 19 19 29 31 36
48 49 49 50 50 50 50 51 52 51 52 53 53 51 51 50 49 51 52 52 51 53 56 55 51 47 35 40 34 30 31 33 27 27 30 28 28 27 26 23 20 19 17 19 24 27 34
47 48 49 50 50 50 50 50 51 51 52 52 52 53 51 51 50 50 51 50 50 53 53 50 47 40 38 28 28 28 28 33 27 27 28 28 25 23 23 22 18 18 20 21 26 30 27
47 47 47 49 49 50 48 49 50 50 51 51 51 51 52 51 50 51 48 44 40 49 49 40 36 30 33 29 26 21 23 34 31 27 26 26 22 19 21 22 17 15 19 22 28 32 30
49 48 48 48 50 50 49 49 49 50 50 51 51 52 52 51 50 51 47 42 31 43 38 32 26 28 31 30 26 26 21 33 31 26 26 24 24 25 23 22 18 16 15 18 17 24 22
50 50 49 49 49 50 50 50 50 49 51 50 50 51 51 51 50 47 43 41 41 43 38 26 21 20 24 27 27 25 23 28 28 26 24 23 23 26 24 20 17 16 16 17 22 24 22
49 49 50 49 49 50 50 50 50 50 50 50 50 50 49 50 45 42 37 40 42 46 32 12 10 25 23 26 24 23 24 26 26 23 23 24 24 23 23 21 17 15 16 19 22 21 17
49 49 49 50 50 50 50 50 50 50 50 50 50 51 49 50 44 42 48 50 49 51 11 6 16 29 28 26 22 23 24 28 26 22 24 24 24 22 24 17 15 17 26 26 23 19 23
49 49 50 50 50 50 50 50 50 50 50 49 50 51 49 46 46 43 46 49 51 31 14 10 27 27 27 28 25 22 23 25 28 24 24 23 24 23 24 20 19 21 26 27 24 22 23
49 49 49 50 50 50 50 50 50 50 50 49 49 50 49 40 43 44 50 49 32 18 5 2 19 28 26 27 25 25 22 22 24 24 25 22 22 22 22 20 22 22 23 21 21 23 24
48 49 49 49 50 50 50 50 50 50 50 49 49 49 47 39 42 49 49 43 17 4 12 14 14 17 26 26 27 25 22 21 26 23 21 21 21 21 23 22 22 24 22 25 28 30 26
48 48 49 49 50 50 50 50 50 49 50 49 49 48 45 45 46 48 42 32 21 12 6 11 13 17 22 26 24 24 22 22 22 24 22 23 21 20 22 22 24 23 23 24 34 36 32
48 48 49 48 49 49 50 50 50 50 49 49 47 44 43 46 48 46 38 31 25 16 11 9 11 12 20 25 23 23 22 22 22 24 26 25 24 23 22 23 24 22 25 27 28 27 27
48 48 48 48 49 49 49 50 50 49 49 49 45 40 42 45 49 41 30 31 28 25 17 15 16 13 12 20 26 23 22 21 23 22 23 24 27 27 24 22 20 22 23 28 29 27 28
47 47 47 48 48 49 49 50 50 49 49 48 43 34 44 46 37 37 32 29 30 26 23 21 21 19 14 19 21 29 24 23 24 24 23 25 29 27 25 23 24 23 24 26 29 26 32
46 47 47 48 48 48 48 49 49 49 49 46 39 39 46 43 30 31 33 31 26 25 24 21 20 21 22 23 26 25 26 32 28 26 25 27 26 27 24 24 25 23 22 24 27 30 30
46 46 47 48 48 48 48 48 49 49 49 47 39 33 40 41 34 31 31 31 26 26 25 22 19 21 23 25 31 33 30 31 34 27 39 38 28 26 26 24 26 24 21 27 30 31 31
46 46 47 47 46 46 46 48 48 49 49 46 39 35 36 33 34 32 31 26 25 24 25 25 23 21 22 25 28 30 34 35 34 36 32 35 29 27 26 22 21 24 22 20 24 28 26
45 46 46 46 46 46 46 48 49 49 49 44 34 35 35 30 34 33 32 28 24 22 23 23 25 21 22 22 28 30 37 33 36 34 32 36 30 31 29 25 21 21 20 21 20 20 19
45 45 45 45 46 46 46 46 47 49 49 44 42 40 36 33 33 32 31 31 28 26 26 22 24 23 23 21 26 42 43 43 44 43 33 32 33 31 29 28 26 25 24 20 22 20 19
45 45 45 45 45 45 46 46 46 46 48 43 40 40 37 31 33 31 30 29 28 27 26 23 23 24 26 40 43 43 42 40 42 41 38 33 32 32 32 35 24 24 24 22 21 19 20
45 45 46 46 45 45 45 45 45 46 47 46 44 40 37 35 29 31 29 28 28 29 28 25 24 23 29 41 37 35 36 35 35 34 38 38 39 38 33 29 26 21 23 25 24 23 24
46 46 47 46 46 45 45 45 45 45 46 45 43 45 41 35 33 30 29 29 28 29 29 30 29 32 34 30 36 32 28 28 27 26 33 33 36 37 37 29 27 31 27 26 25 24 27
46 46 46 46 46 45 45 45 45 45 45 45 43 46 43 37 33 35 31 32 30 29 30 29 31 33 37 33 33 32 29 20 19 25 33 35 37 35 36 33 33 30 28 26 25 30 33
45 46 46 46 46 46 46 45 45 45 45 45 43 47 44 41 35 39 38 36 33 31 31 30 31 36 38 34 34 32 33 28 20 19 32 35 35 36 37 34 31 34 32 27 35 35 38
45 45 46 46 45 45 46 45 45 45 45 44 42 47 46 44 42 43 41 44 43 42 32 33 33 32 35 36 38 36 37 39 28 24 24 34 34 36 37 37 40 41 36 37 39 39 39

GFSGBSN_sfc_dewp_045.txt.gz
Dewpoint
49 49 49 49 50 51 51 51 53 54 54 52 49 51 51 51 52 53 53 53 54 54 55 56 57 58 53 44 41 49 59 57 44 36 33 30 23 20 18 19 23 18 17 20 20 24 27
49 49 49 49 49 49 50 50 52 52 52 53 52 50 49 52 52 51 53 53 53 53 54 55 57 57 51 41 39 50 49 44 36 33 29 31 23 19 26 26 24 23 21 21 21 22 30
49 50 50 51 50 51 50 52 52 52 52 52 53 52 51 49 51 51 51 52 52 52 53 55 56 54 49 44 42 42 40 41 35 32 28 28 26 30 28 28 30 27 21 20 19 29 35
48 49 49 50 51 51 51 51 51 52 52 53 53 53 52 51 50 50 50 51 51 52 52 53 56 51 45 42 42 41 39 37 36 31 29 28 31 31 32 29 27 24 23 19 19 30 37
48 48 48 50 50 50 51 51 51 51 52 52 52 52 52 52 51 51 50 51 51 51 52 53 51 49 44 43 37 38 34 31 36 32 29 27 33 29 28 26 24 24 19 18 21 31 36
47 48 48 49 50 50 50 51 51 51 51 52 52 52 51 51 51 51 50 50 49 51 52 52 50 45 44 31 33 33 33 31 35 29 28 30 28 26 24 24 21 22 20 24 26 31 36
47 47 48 48 50 49 49 49 50 50 51 51 52 52 52 51 51 51 49 43 42 47 49 46 42 36 35 35 36 29 32 28 33 28 26 29 26 23 22 23 23 22 18 17 27 31 32
48 48 48 49 49 49 49 50 50 50 50 51 51 51 52 52 52 51 48 42 40 40 39 42 45 44 42 39 33 30 24 26 33 29 27 27 24 24 23 22 23 24 20 17 23 29 31
49 49 49 49 49 49 49 50 50 50 50 50 51 50 51 51 51 48 42 41 41 39 38 34 36 30 28 24 21 25 25 23 33 30 28 25 26 25 24 25 23 21 18 17 20 26 25
49 49 49 49 49 49 50 50 50 50 50 50 50 50 50 49 46 43 40 47 48 45 38 27 17 23 23 22 25 24 28 22 31 29 29 26 26 24 23 24 23 19 19 22 25 24 21
48 49 49 50 50 50 50 50 50 50 50 50 50 50 50 49 46 43 43 44 45 49 8 12 14 17 21 20 26 26 27 25 24 27 26 24 25 25 24 24 24 23 26 26 29 26 22
48 48 49 49 49 50 50 50 50 50 50 50 50 50 50 46 46 45 44 45 49 34 25 13 28 28 28 21 24 25 24 24 27 26 26 24 25 24 24 25 25 21 30 30 30 27 22
47 48 48 49 49 49 50 50 50 50 50 50 50 50 48 43 40 44 47 46 34 26 6 -1 26 29 28 28 26 24 24 22 21 24 25 25 24 24 25 24 26 22 24 24 22 23 22
47 47 48 48 49 49 49 50 50 50 50 50 50 49 48 44 42 44 47 40 27 11 15 14 12 19 27 26 27 28 26 24 22 25 25 24 22 23 24 23 22 23 23 26 21 26 29
47 47 48 48 48 48 49 50 50 50 50 49 49 48 46 45 44 46 42 31 23 18 11 3 3 8 26 28 28 27 26 25 24 22 23 24 22 24 22 24 23 26 24 28 35 36 31
46 46 47 47 48 48 49 49 50 50 50 50 47 45 42 45 45 44 37 30 28 26 18 13 12 15 16 24 27 27 26 25 25 23 25 28 25 25 24 23 24 23 27 27 34 28 28
46 47 46 47 48 48 48 49 49 50 50 49 46 40 42 45 47 39 30 30 28 28 28 24 14 15 14 17 17 22 26 25 25 24 25 24 25 27 30 27 23 25 23 27 32 32 27
46 46 46 46 47 48 48 48 49 49 50 48 44 34 43 43 36 35 30 30 32 24 28 28 26 21 19 21 19 19 31 31 29 27 24 25 28 24 24 28 28 25 24 27 30 28 31
45 46 46 47 47 47 47 48 49 49 49 47 39 39 45 41 30 30 30 30 29 29 27 26 26 24 24 21 21 28 33 37 38 33 25 26 24 22 24 24 28 24 24 25 28 33 30
45 45 46 46 46 47 47 48 48 49 49 48 38 32 39 41 33 30 29 28 29 30 30 29 25 25 22 22 22 30 34 37 39 40 42 33 26 22 21 24 28 27 26 25 24 28 27
45 45 45 46 46 46 47 47 48 48 49 47 38 34 36 32 33 32 30 26 28 28 29 27 24 25 24 22 23 25 34 36 38 39 40 37 26 26 22 26 27 27 26 24 22 25 29
44 45 45 46 46 47 47 47 48 48 48 46 33 36 35 31 34 33 32 28 26 27 27 25 24 25 24 22 22 23 35 38 39 42 41 40 30 30 28 27 24 24 25 24 25 28 31
45 45 46 46 46 47 48 47 47 47 48 44 42 40 35 33 34 33 30 29 28 28 28 27 26 25 25 26 26 36 42 44 44 41 40 39 36 31 25 29 28 26 27 24 26 26 26
45 46 46 45 45 46 46 46 46 46 47 45 43 40 35 33 31 32 30 30 29 30 28 28 27 26 26 28 44 43 42 41 42 43 43 39 38 34 28 30 26 27 27 26 26 24 23
45 45 45 45 45 45 45 45 46 46 46 45 43 41 36 32 31 30 31 29 30 31 31 29 29 28 28 27 35 33 31 33 35 37 41 41 38 33 29 27 28 29 25 25 25 24 26
45 45 45 45 46 46 45 45 45 45 46 44 41 45 41 34 34 30 30 31 29 29 29 29 31 32 31 26 32 25 25 29 30 31 37 40 39 34 31 27 24 30 31 30 28 24 27
46 46 46 46 46 46 46 45 45 45 46 45 43 43 42 36 35 34 30 30 31 30 29 29 30 31 33 30 26 28 28 33 28 27 32 33 32 32 31 32 31 33 30 30 25 25 30
46 46 46 46 46 46 46 46 45 45 45 45 43 44 41 35 38 38 36 34 33 31 29 31 33 32 32 29 29 30 27 32 31 30 33 33 32 32 34 31 28 39 38 30 36 36 35
46 46 45 45 45 45 45 45 45 45 45 45 41 44 43 40 41 44 43 43 40 40 37 33 30 30 34 31 33 33 26 31 29 25 27 31 35 35 36 35 41 40 42 42 42 40 40

GFSGBSN_sfc_dewp_048.txt.gz
Dewpoint
50 49 49 50 50 50 49 50 52 53 53 52 52 53 52 51 52 52 52 52 52 53 52 52 53 56 54 46 43 46 58 56 45 36 32 30 30 22 19 18 22 22 20 21 21 35 46
49 50 50 51 50 50 50 50 51 52 52 52 53 53 53 52 51 52 52 51 51 52 52 52 52 56 51 43 35 41 49 45 37 33 30 32 30 23 20 26 27 28 27 24 20 25 42
48 49 49 51 51 50 50 51 52 52 52 52 52 53 53 53 52 52 52 51 51 51 52 51 52 52 47 43 42 40 40 40 37 34 28 29 32 27 28 26 32 28 23 23 22 21 37
48 48 48 50 51 51 51 51 51 51 51 52 52 52 52 52 52 52 52 51 51 51 51 52 52 51 43 46 45 44 44 42 40 36 33 31 30 29 28 30 27 24 25 20 21 24 38
47 48 48 50 50 50 50 51 51 51 51 52 52 52 52 52 51 51 51 51 51 51 51 53 51 48 43 48 42 42 39 35 35 37 34 30 29 27 29 25 23 26 20 21 21 26 35
46 47 47 48 50 50 50 51 50 51 51 52 52 51 52 52 51 51 51 51 48 50 49 52 51 46 44 31 34 33 37 34 31 37 34 27 28 26 25 23 20 21 21 26 21 29 36
46 47 47 48 49 48 49 49 50 51 51 51 51 52 51 52 51 51 49 43 37 43 47 46 44 42 33 38 41 33 35 33 30 31 26 29 26 24 24 25 24 24 23 21 20 28 35
46 46 48 48 49 49 49 50 51 51 51 51 51 51 51 51 51 51 48 41 39 38 35 36 41 44 43 42 41 39 30 26 29 29 26 26 25 26 27 26 24 23 22 22 20 28 31
45 46 46 47 48 49 49 50 50 50 51 51 51 51 51 50 50 48 44 41 40 43 38 35 34 36 39 40 41 38 26 25 31 31 28 23 26 27 26 24 23 23 22 21 17 25 27
45 46 47 47 48 48 49 50 50 50 50 51 51 51 50 49 45 44 42 44 43 43 35 28 29 28 30 27 26 27 22 23 27 30 31 27 25 25 26 24 23 21 25 21 24 24 21
46 46 47 46 47 49 50 50 50 50 50 50 51 51 50 49 42 41 43 42 45 44 -6 2 20 27 29 21 22 23 23 27 23 30 30 29 27 26 25 24 25 24 28 24 24 23 23
45 45 45 46 48 49 49 50 50 50 50 50 51 50 50 47 46 44 43 44 46 34 18 22 21 20 22 21 24 26 23 28 26 26 28 28 27 25 25 26 26 26 28 28 28 27 23
45 45 45 46 47 48 49 49 49 50 50 50 50 50 49 45 39 42 43 45 32 22 14 5 24 29 25 18 20 25 24 24 22 23 22 23 25 26 26 24 26 24 26 23 22 23 23
44 45 45 46 47 48 48 49 49 49 50 50 49 50 49 46 43 43 44 40 26 19 15 17 15 13 28 26 24 25 25 22 23 25 23 22 24 25 27 25 24 24 24 24 20 24 24
42 45 45 46 47 47 48 48 48 49 49 49 49 48 46 45 44 44 39 30 27 23 17 14 9 6 8 28 27 28 28 25 25 22 24 25 24 26 25 25 24 24 23 26 32 35 30
42 44 45 46 47 47 47 48 48 48 49 49 47 45 43 45 44 43 35 29 28 26 25 23 15 17 16 16 21 26 27 28 27 26 25 27 24 26 25 26 25 24 28 27 32 26 23
45 44 45 46 46 46 46 47 48 49 49 50 46 40 43 46 46 38 28 26 28 29 29 27 25 19 17 17 20 20 21 26 28 27 26 23 25 25 28 26 22 25 24 29 32 31 26
44 44 45 45 46 46 46 47 48 49 49 48 44 35 43 44 35 35 28 28 32 29 30 28 28 28 25 23 22 21 23 27 39 38 25 26 26 22 22 26 27 25 25 27 29 28 30
44 44 45 45 46 46 46 47 48 48 49 46 40 38 44 40 29 30 30 28 30 29 28 28 28 26 26 25 23 26 28 32 39 38 38 37 26 23 23 23 25 25 26 26 30 32 29
44 44 44 45 46 46 46 47 47 48 49 47 36 32 39 39 34 29 27 26 25 30 29 29 28 29 26 26 26 24 25 31 39 39 44 41 32 24 21 23 26 26 27 26 26 26 25
43 44 44 45 45 46 46 46 47 47 48 46 36 34 37 32 32 32 29 28 27 26 29 30 28 25 26 25 25 21 26 34 38 43 42 43 35 31 26 23 25 24 22 26 26 26 25
43 44 44 45 45 45 46 46 47 47 48 44 33 35 36 33 33 32 30 28 26 27 27 26 26 27 24 24 25 25 25 26 36 42 40 43 37 36 28 27 24 23 28 25 26 27 25
44 44 44 45 45 46 46 46 47 47 48 42 43 40 35 33 32 33 30 28 27 30 29 28 28 27 26 26 29 32 32 34 40 39 39 39 38 35 27 28 27 24 26 26 26 26 29
44 45 45 45 46 46 46 46 47 47 47 45 44 41 36 32 30 30 30 31 28 30 28 27 29 28 29 29 40 42 40 40 42 42 42 38 36 36 30 28 23 26 26 25 25 26 26
45 45 46 46 46 46 45 45 45 46 47 46 45 42 37 32 32 29 30 30 30 30 30 30 30 30 31 29 29 30 29 31 35 40 41 40 36 32 30 30 29 28 29 28 26 25 27
45 45 45 45 45 45 45 45 45 45 47 46 44 45 41 35 32 32 30 31 30 30 30 30 32 34 33 29 30 24 23 27 27 32 41 38 38 33 32 28 27 29 30 32 29 24 27
45 45 45 46 46 45 45 45 45 45 46 45 43 44 41 34 35 34 30 31 31 31 30 31 31 30 32 28 25 24 23 32 26 27 32 32 32 30 30 29 33 36 37 34 26 26 39
46 46 46 46 46 46 46 46 45 45 45 45 43 43 39 33 36 36 35 33 32 31 29 31 31 32 32 27 26 26 24 30 29 31 32 30 30 30 32 31 26 41 36 32 37 41 40
45 46 46 46 46 46 46 45 46 46 45 45 41 43 43 38 37 44 42 40 34 33 32 33 32 31 32 31 30 30 26 25 28 24 29 29 33 32 34 31 39 42 37 42 42 41 42

GFSGBSN_sfc_dewp_054.txt.gz
Dewpoint
48 48 49 50 49 50 50 50 50 51 51 50 51 51 50 49 50 51 52 52 52 51 51 51 51 51 49 44 42 42 57 59 49 33 28 28 26 21 16 17 18 17 19 22 23 27 36
47 47 48 48 49 49 49 49 49 51 51 50 51 52 52 51 50 51 52 51 51 51 51 51 51 51 47 36 33 43 42 46 36 31 30 27 25 24 20 18 22 25 25 27 25 31 38
46 46 48 48 49 49 49 49 50 50 51 51 51 51 52 51 52 52 52 51 50 50 51 51 51 48 43 37 40 41 42 39 37 32 28 30 28 27 27 27 28 28 23 23 22 25 39
45 46 45 46 48 49 49 49 50 50 51 51 51 52 52 52 52 52 51 51 50 50 51 51 51 47 40 44 45 45 44 40 40 38 35 34 31 27 27 28 26 24 23 19 21 34 34
45 45 46 46 48 49 49 50 51 50 50 52 52 52 52 51 51 51 51 51 50 50 52 52 47 44 39 46 44 45 43 33 34 38 38 33 31 28 28 25 23 23 18 18 19 24 35
45 46 45 47 45 47 49 49 51 51 51 52 52 52 52 52 51 51 51 50 48 50 48 48 48 36 35 19 36 38 44 39 32 36 36 34 30 26 25 23 20 20 20 24 20 23 34
45 45 45 45 45 46 46 47 49 50 51 51 51 51 52 52 51 51 48 43 38 37 40 39 40 38 35 42 42 39 39 37 33 33 30 31 27 25 24 25 23 20 21 21 21 22 22
44 44 44 45 44 44 47 48 49 50 50 51 51 51 51 51 51 51 45 41 39 40 37 38 39 39 39 42 39 33 39 32 30 27 30 26 25 26 26 26 24 23 22 21 21 22 23
43 44 44 44 44 43 45 46 47 49 50 51 51 51 51 51 51 44 43 42 41 39 39 36 37 36 31 34 33 29 37 30 28 27 29 26 26 26 25 26 24 24 22 22 20 23 25
44 45 44 45 42 44 45 46 46 47 49 50 51 51 51 50 43 42 38 42 41 42 33 27 36 34 28 37 34 30 33 27 29 25 28 28 29 26 26 24 24 22 25 24 23 23 21
45 45 44 45 43 44 45 46 46 47 48 50 50 50 51 50 43 41 39 43 41 44 8 8 27 29 34 22 20 27 33 28 25 28 30 28 28 27 25 25 25 24 27 25 25 24 23
44 44 45 42 43 44 44 45 46 47 48 49 50 50 50 47 46 44 44 42 44 34 21 18 23 27 30 29 24 25 28 26 26 27 30 28 30 27 27 27 26 27 27 27 27 25 22
43 43 44 42 43 43 43 45 46 47 48 48 50 49 48 46 40 42 42 40 32 25 24 11 15 22 25 25 24 22 22 21 19 20 22 23 27 28 27 25 28 26 24 21 20 23 23
42 44 43 42 42 42 43 45 46 47 48 49 49 49 47 48 44 43 40 34 23 26 24 24 20 19 19 22 21 20 19 17 18 24 23 20 19 25 27 26 25 25 25 23 19 21 19
43 42 42 42 42 43 43 44 45 47 47 48 48 43 45 45 44 43 36 25 23 26 26 27 22 16 18 18 24 25 20 17 16 25 21 22 21 25 25 27 26 25 24 25 27 30 27
40 42 42 42 42 42 43 44 44 45 47 47 41 41 42 46 45 43 34 25 27 32 28 28 22 23 19 20 20 20 27 31 25 21 27 26 23 26 26 26 27 25 28 26 27 23 22
41 41 42 42 41 42 41 42 43 44 47 47 40 38 43 46 46 38 28 28 24 23 25 27 28 26 25 23 22 20 20 31 33 34 27 24 25 24 25 25 23 24 24 28 27 27 21
40 41 42 42 42 41 41 42 43 45 46 45 40 32 45 45 34 34 29 30 29 24 27 30 30 27 26 24 21 22 24 30 26 38 33 33 26 22 19 23 26 24 25 29 25 23 28
40 41 41 41 41 42 43 42 43 45 45 43 37 36 45 43 30 30 33 30 28 27 27 29 29 29 28 24 18 23 26 32 29 37 36 35 32 23 24 24 25 23 23 25 30 29 25
42 41 41 41 40 42 43 43 43 45 45 43 36 30 38 40 37 31 31 29 27 28 27 29 29 29 27 25 26 25 25 28 32 38 44 40 35 32 28 31 35 32 29 25 25 24 24
41 42 42 42 42 43 43 43 44 45 45 43 36 31 36 30 32 31 31 29 27 25 27 28 27 28 27 24 24 23 25 27 27 34 41 39 30 36 36 36 35 33 31 27 25 25 24
41 42 43 43 43 43 43 43 44 44 45 41 32 34 38 36 33 34 33 29 27 28 25 26 27 29 28 26 25 22 24 23 24 31 35 39 32 34 32 34 30 29 31 27 26 25 27
43 44 44 45 45 44 44 43 44 44 44 40 40 39 39 35 34 32 31 30 28 28 30 27 28 28 27 27 29 29 29 28 29 30 29 36 33 30 26 31 29 26 28 25 29 28 27
43 44 44 44 44 45 45 43 44 44 44 42 41 40 35 30 33 32 30 30 29 28 27 30 29 28 29 32 31 32 31 30 31 33 36 35 33 31 28 28 21 24 29 33 30 29 24
44 44 44 45 44 45 45 44 44 44 45 43 42 40 36 30 33 33 32 31 30 30 30 28 30 31 32 31 29 27 26 31 32 34 36 38 34 27 24 24 26 24 28 33 29 25 22
44 44 45 45 44 44 44 44 45 45 45 44 42 44 40 34 32 35 35 33 31 30 29 30 31 33 33 31 31 26 22 25 27 30 38 35 34 30 29 21 18 20 22 34 34 25 37
44 44 44 44 44 44 44 44 45 45 45 44 42 43 41 35 36 36 35 34 33 31 29 30 31 31 32 30 29 27 26 26 23 26 31 31 32 30 28 27 27 30 34 38 28 18 36
44 44 45 45 45 45 45 44 44 45 46 45 42 45 41 34 37 37 38 36 35 31 29 31 32 31 30 27 27 26 22 25 24 30 30 29 27 26 29 28 21 36 36 30 32 35 38
45 45 46 46 46 45 45 45 45 44 44 46 41 45 45 39 38 42 41 40 36 33 30 33 31 31 31 27 26 27 23 23 27 24 32 27 29 28 29 28 32 40 35 36 39 37 37

GFSGBSN_sfc_dewp_060.txt.gz
Dewpoint
44 46 47 48 49 49 48 49 49 50 50 50 50 50 51 50 50 51 52 52 52 51 50 50 50 50 47 26 12 13 52 53 49 43 30 29 28 24 19 16 19 21 16 19 20 20 21
46 45 46 47 47 46 47 47 48 49 50 50 51 52 51 51 51 51 52 52 52 52 51 50 50 50 43 29 15 28 36 35 37 39 33 29 26 24 21 18 18 17 20 17 18 21 24
45 46 47 47 47 47 47 47 47 48 49 50 51 52 52 51 51 51 52 52 52 52 52 51 50 46 41 33 22 23 29 24 31 36 32 34 31 25 21 21 21 19 20 20 22 22 21
47 45 46 46 48 48 47 47 48 49 50 50 50 51 52 52 52 52 52 52 52 52 52 51 51 45 34 31 33 36 33 31 27 32 36 30 33 29 26 23 23 19 20 16 16 19 24
44 46 45 45 47 47 47 47 47 47 48 49 50 51 51 51 52 52 51 51 51 50 51 51 47 42 29 38 35 34 39 33 26 29 35 33 32 29 25 21 19 22 13 16 15 21 26
45 45 45 45 46 45 45 45 47 48 49 49 49 50 51 51 51 51 51 50 48 49 47 46 43 38 31 16 25 39 43 40 28 26 34 34 31 26 24 19 16 16 17 14 15 18 24
45 45 45 45 44 43 43 45 46 47 47 48 48 49 50 51 51 51 47 40 33 34 34 30 29 33 31 36 39 28 42 41 32 27 28 33 28 23 21 23 18 15 16 13 11 18 22
45 44 46 45 44 45 45 44 45 47 46 47 48 49 49 50 51 50 44 38 38 38 36 35 34 33 31 33 34 29 39 31 34 22 28 32 29 26 24 23 21 17 16 14 14 20 20
45 46 45 41 44 44 42 44 43 45 46 46 47 48 48 50 50 46 42 40 42 41 34 32 34 34 33 32 30 30 35 35 31 30 18 27 25 28 28 22 21 20 17 17 15 18 19
43 45 46 44 45 45 41 43 41 44 45 45 47 48 49 50 45 42 39 41 42 43 32 23 28 32 33 30 26 27 27 32 26 24 26 21 20 26 27 23 20 18 18 19 20 20 10
43 44 45 45 42 45 45 42 41 44 44 45 48 47 49 49 44 39 41 43 43 43 11 19 25 32 30 27 19 24 25 24 22 18 26 22 21 20 23 23 21 20 20 23 21 21 18
44 44 43 45 43 44 46 44 44 43 43 45 46 47 48 43 46 41 43 45 43 32 10 16 20 21 26 26 22 26 27 23 21 19 29 25 27 23 20 21 24 23 23 23 23 20 19
42 42 43 43 44 44 44 43 42 43 43 45 45 46 45 42 40 45 46 39 29 14 14 19 21 22 20 18 22 24 26 23 17 16 21 21 24 27 27 19 24 23 22 19 17 20 18
42 43 43 42 42 44 44 43 43 44 43 45 45 47 44 39 43 47 44 33 20 12 17 24 24 21 15 19 21 23 25 21 20 12 13 15 19 24 27 25 22 25 23 18 18 19 17
42 42 42 42 42 42 44 43 44 44 44 44 45 42 41 41 45 47 38 27 14 16 22 25 22 17 16 19 20 21 23 23 20 20 15 18 16 24 26 27 24 25 23 23 21 28 25
40 41 41 42 42 42 44 44 43 42 42 43 43 40 36 42 48 45 35 23 20 24 27 25 21 22 17 20 17 21 23 25 26 25 22 22 18 20 26 28 27 27 26 24 24 19 19
42 41 41 40 41 41 42 43 43 42 41 42 42 35 36 44 48 38 27 24 23 22 26 25 25 23 23 21 19 16 26 25 25 23 25 22 26 25 25 26 25 26 26 26 24 23 20
39 39 39 40 41 41 41 42 43 42 41 42 39 31 43 46 34 34 29 25 29 24 23 24 27 27 25 24 21 17 19 25 26 29 26 22 26 22 22 24 24 24 24 25 24 23 25
39 39 40 41 41 41 41 42 42 43 41 42 34 32 44 45 28 29 29 25 29 26 23 22 23 28 27 24 21 18 20 23 25 27 35 36 22 17 14 17 24 23 23 24 26 26 25
39 39 40 39 39 40 40 42 42 43 42 43 36 30 35 39 36 31 26 28 26 29 25 25 24 28 26 26 25 23 21 21 25 29 40 40 34 21 18 17 26 28 26 29 26 25 24
39 40 40 41 41 40 41 42 42 43 43 43 36 33 29 30 30 30 30 30 23 24 27 26 24 25 24 24 24 22 22 22 21 31 32 36 31 31 30 30 30 29 28 27 27 27 25
38 39 39 40 41 41 40 41 41 41 42 40 33 31 36 31 29 29 29 26 27 23 25 24 24 23 26 25 25 22 23 23 23 24 26 31 27 29 25 26 28 25 24 25 24 27 27
39 39 39 39 39 39 40 41 42 42 43 38 39 38 36 28 27 29 27 28 25 26 27 25 26 26 27 27 28 29 29 30 29 28 27 27 31 26 19 25 25 21 23 22 27 29 29
39 38 39 39 39 40 41 42 42 43 43 37 35 35 32 26 28 23 23 27 30 27 27 28 28 32 30 33 34 33 32 30 30 30 30 26 32 32 23 29 18 20 29 27 29 28 29
41 40 40 41 42 42 42 42 43 43 44 42 35 39 33 27 22 22 25 27 28 29 30 32 32 33 37 37 33 27 28 29 30 29 30 29 30 31 26 22 17 17 23 26 29 22 27
43 43 42 43 43 43 43 43 44 44 45 43 41 38 38 34 26 22 24 25 30 30 30 32 37 40 39 36 32 24 23 20 24 26 27 28 31 31 31 22 20 20 27 31 27 17 27
44 43 43 43 43 44 44 44 44 45 45 45 40 43 39 32 33 32 26 28 33 35 33 36 37 36 38 34 29 25 24 25 24 26 29 29 30 28 29 26 24 27 28 32 20 28 35
44 44 44 44 44 44 44 44 44 45 45 45 42 43 39 35 32 32 34 30 32 35 32 33 35 36 35 32 29 25 27 24 23 27 28 27 25 28 27 26 23 32 31 26 38 38 40
44 44 45 45 45 45 45 45 45 45 46 45 39 44 43 37 36 38 38 38 33 32 35 37 31 34 33 29 31 29 28 33 23 23 30 28 26 27 26 26 37 39 39 40 41 40 39

GFSGBSN_sfc_dewp_063.txt.gz
Dewpoint
47 46 46 47 47 47 47 48 47 48 49 49 50 50 51 51 51 51 52 52 53 52 52 51 51 51 44 33 32 27 50 48 47 41 36 30 27 26 24 17 14 17 16 15 14 14 15
46 46 47 47 46 47 45 46 47 49 49 50 51 51 51 51 51 51 52 52 52 52 52 51 51 50 41 28 31 28 24 18 17 36 36 30 27 26 22 19 17 17 16 17 13 16 17
47 47 46 48 47 47 48 47 47 49 50 50 50 50 51 51 50 51 52 52 52 52 52 51 51 46 37 26 25 23 26 21 16 11 26 34 30 26 26 23 20 17 15 16 15 15 14
46 45 46 45 46 49 47 48 47 46 48 49 49 50 51 51 51 52 52 52 51 51 52 51 51 45 34 25 27 30 29 27 24 19 17 32 33 33 28 23 20 17 18 15 16 16 17
47 46 45 46 46 47 46 46 46 46 49 49 49 50 51 51 51 51 51 51 51 52 50 51 48 43 29 36 27 26 26 25 29 25 23 21 30 30 30 25 21 22 15 16 16 16 16
45 46 46 46 46 46 45 45 47 47 47 48 48 48 50 50 51 51 51 50 48 49 48 43 40 38 34 21 19 32 38 34 34 36 25 21 28 28 25 23 17 17 17 17 15 16 17
46 45 45 44 46 44 44 45 46 48 47 47 47 48 49 50 50 50 48 39 32 37 34 27 26 32 25 30 31 31 36 39 33 31 31 18 22 25 24 25 23 19 17 16 17 15 17
45 46 46 44 45 44 44 45 46 45 43 46 46 47 48 48 50 50 47 36 37 39 36 32 31 31 31 29 26 29 36 32 34 33 31 25 20 21 23 23 22 22 18 17 17 14 18
44 44 44 45 45 42 45 44 44 44 44 45 45 47 48 49 50 47 39 39 39 41 33 28 28 29 30 31 26 26 29 31 33 35 34 27 22 26 22 23 21 22 21 19 17 16 18
44 45 43 45 46 45 44 45 43 42 44 45 45 46 49 49 45 41 37 39 41 43 32 20 23 28 32 30 25 24 28 32 34 34 36 29 25 26 25 24 25 21 21 19 17 17 16
44 45 45 44 44 46 45 44 44 42 44 44 46 46 48 48 41 37 38 42 43 42 18 12 24 30 29 25 22 24 22 30 28 29 27 30 22 18 24 25 25 24 22 20 19 19 20
44 45 44 43 43 44 45 45 45 43 43 43 44 46 47 40 43 42 40 44 43 35 16 14 18 20 21 21 24 23 23 23 27 31 28 24 24 25 22 19 23 23 22 22 22 22 22
43 44 43 42 43 44 44 45 45 43 43 43 44 46 43 39 36 43 44 41 30 18 10 14 17 18 17 17 20 22 26 24 17 21 25 27 24 25 26 20 23 20 22 20 20 21 21
41 42 42 43 44 43 44 44 44 44 43 42 44 46 41 37 39 44 43 33 21 8 8 16 19 15 12 16 21 23 24 23 22 21 23 20 20 25 25 25 19 21 21 21 20 22 18
41 41 42 42 42 43 43 43 44 44 44 43 44 37 37 40 42 41 39 27 15 10 12 19 12 5 7 16 19 21 23 24 22 23 19 18 12 18 20 27 25 21 21 22 21 28 26
41 41 41 42 43 43 42 43 43 42 42 42 35 36 35 40 44 43 36 25 17 18 23 18 11 10 13 16 18 20 23 27 26 26 24 21 17 17 22 25 28 25 23 21 23 21 21
40 41 42 42 41 41 42 41 42 43 43 41 35 34 35 40 44 40 32 25 20 18 23 21 16 17 17 19 19 19 30 29 28 26 31 23 23 20 22 23 24 26 24 27 23 22 22
40 40 40 40 40 40 41 41 41 43 42 39 34 32 38 41 37 34 29 26 27 20 21 22 23 23 23 23 21 19 19 25 29 28 35 26 23 20 29 22 24 26 26 26 26 27 25
39 39 39 39 39 40 41 41 41 42 42 36 33 31 42 44 31 30 29 25 23 22 20 19 19 21 21 22 20 21 19 23 25 27 32 34 22 21 22 28 23 23 26 28 28 29 30
40 40 40 40 41 41 41 41 41 42 42 41 36 33 30 40 35 30 25 26 22 23 22 21 19 19 20 22 23 22 23 21 23 23 37 36 34 22 15 19 19 22 23 25 24 27 27
39 38 39 39 40 40 40 40 41 42 42 42 35 32 30 30 30 30 28 28 21 20 23 21 21 21 21 21 20 22 23 23 23 29 26 30 35 36 26 27 27 19 21 21 24 26 26
39 39 39 39 40 41 41 40 41 41 42 40 34 30 30 28 30 26 27 28 23 24 21 21 24 21 19 19 20 22 23 22 23 23 26 29 29 37 30 28 27 26 26 24 24 24 25
38 39 39 39 40 40 40 40 41 41 41 39 34 34 36 28 26 28 28 24 21 24 25 25 24 22 22 24 28 31 31 30 32 29 27 27 25 31 29 26 24 25 26 24 25 24 25
39 39 38 39 39 40 40 41 42 42 42 40 35 30 33 27 24 23 20 25 23 24 23 21 24 25 27 35 34 32 30 28 29 28 29 28 26 25 27 27 23 21 23 24 24 26 26
42 41 42 40 41 41 41 41 41 42 42 45 38 36 30 28 20 22 25 26 26 27 27 28 28 28 38 35 32 27 27 28 29 27 27 29 29 28 25 23 19 15 17 25 27 25 27
43 43 44 44 43 42 42 42 42 42 43 45 45 40 37 31 24 18 18 18 24 29 28 28 39 41 39 36 35 25 22 22 22 23 26 27 29 29 27 21 19 20 24 27 28 25 27
43 44 45 44 44 44 43 43 43 43 43 44 41 44 39 33 28 28 26 22 26 27 32 31 37 37 38 35 32 26 24 26 24 23 24 27 28 26 26 25 21 21 23 28 22 29 35
44 44 44 44 44 44 44 44 43 44 44 43 41 43 39 36 29 28 30 32 30 32 31 37 36 36 35 33 28 26 27 28 25 28 24 24 25 26 26 23 21 28 25 28 36 38 37
44 44 44 44 44 45 44 44 44 44 44 45 40 43 43 38 34 33 31 32 32 35 36 37 35 35 33 31 30 33 31 33 27 29 28 24 24 25 23 22 35 38 38 39 39 38 38